KC5DAQ-22 Weather Reports


Display with metric or nautical units.
time (UTC)temp
F
wind
direction
speed
MPH
gust
MPH
rain 1hr
in
rain 24hr
in
rain mn
in
humidity
%
barometer
mb
20260831002230 92 111 5.0 11.0 0.00 0.00 0.00 49 1011.4
20260831002128 92 113 5.0 11.0 0.00 0.00 0.00 49 1011.5
20260831002027 92 176 6.0 11.0 0.00 0.00 0.00 48 1011.5
20260831001924 92 102 5.0 12.0 0.00 0.00 0.00 49 1011.4
20260831001823 92 103 6.0 12.0 0.00 0.00 0.00 49 1011.4
20260831001719 92 140 7.0 12.0 0.00 0.00 0.00 49 1011.4
20260831001616 92 96 7.0 12.0 0.00 0.00 0.00 49 1011.4
20260831001517 92 118 7.0 12.0 0.00 0.00 0.00 49 1011.5
20260831001414 92 89 8.0 12.0 0.00 0.00 0.00 49 1011.4
20260831001313 93 131 8.0 12.0 0.00 0.00 0.00 49 1011.4
20260831001213 93 137 7.0 12.0 0.00 0.00 0.00 50 1011.5
20260831001113 93 104 6.0 12.0 0.00 0.00 0.00 50 1011.4
20260831001012 93 96 5.0 12.0 0.00 0.00 0.00 50 1011.4
20260831000913 93 116 5.0 12.0 0.00 0.00 0.00 50 1011.3
20260831000815 93 148 5.0 12.0 0.00 0.00 0.00 50 1011.4
20260831000713 93 161 5.0 12.0 0.00 0.00 0.00 51 1011.4
20260831000612 93 94 6.0 12.0 0.00 0.00 0.00 51 1011.4
20260831000512 93 94 5.0 12.0 0.00 0.00 0.00 51 1011.4
20260831000412 93 138 6.0 12.0 0.00 0.00 0.00 52 1011.3
20260831000312 93 148 6.0 14.0 0.00 0.00 0.00 52 1011.3
20260831000212 93 79 6.0 14.0 0.00 0.00 0.00 53 1011.3
20260831000114 93 106 6.0 14.0 0.00 0.00 0.00 53 1011.3
20260831000012 93 102 5.0 14.0 0.00 0.00 0.00 54 1011.3
20260830235912 93 176 4.0 14.0 0.00 0.00 0.00 54 1011.3
20260830235815 93 90 5.0 14.0 0.00 0.00 0.00 54 1011.4
20260830235712 93 151 6.0 14.0 0.00 0.00 0.00 54 1011.3
20260830235612 93 128 8.0 14.0 0.00 0.00 0.00 53 1011.4
20260830235512 93 102 10.0 14.0 0.00 0.00 0.00 54 1011.3
20260830235413 93 120 7.0 14.0 0.00 0.00 0.00 54 1011.3
20260830235313 93 117 6.0 14.0 0.00 0.00 0.00 54 1011.3
20260830235213 93 147 6.0 14.0 0.00 0.00 0.00 53 1011.3
20260830235113 93 96 5.0 14.0 0.00 0.00 0.00 54 1011.2
20260830235012 93 138 5.0 14.0 0.00 0.00 0.00 53 1011.3
20260830234912 93 120 7.0 14.0 0.00 0.00 0.00 53 1011.3
20260830234812 93 137 9.0 14.0 0.00 0.00 0.00 53 1011.2
20260830234715 93 80 8.0 14.0 0.00 0.00 0.00 53 1011.3
20260830234611 94 103 7.0 13.0 0.00 0.00 0.00 52 1011.3
20260830234511 94 124 8.0 13.0 0.00 0.00 0.00 51 1011.3
20260830234413 94 111 8.0 13.0 0.00 0.00 0.00 51 1011.3
20260830234313 94 123 6.0 12.0 0.00 0.00 0.00 50 1011.3
20260830234212 94 123 5.0 12.0 0.00 0.00 0.00 50 1011.3
20260830234113 94 117 5.0 12.0 0.00 0.00 0.00 50 1011.2
20260830234014 94 109 6.0 12.0 0.00 0.00 0.00 50 1011.2
20260830233913 94 152 6.0 12.0 0.00 0.00 0.00 50 1011.2
20260830233812 94 140 5.0 12.0 0.00 0.00 0.00 50 1011.2
20260830233713 94 120 5.0 12.0 0.00 0.00 0.00 50 1011.2
20260830233611 94 104 5.0 12.0 0.00 0.00 0.00 49 1011.2
20260830233511 95 195 4.0 12.0 0.00 0.00 0.00 49 1011.2
20260830233412 95 106 4.0 12.0 0.00 0.00 0.00 49 1011.1
20260830233313 95 89 5.0 12.0 0.00 0.00 0.00 48 1011.2
20260830233212 95 104 5.0 12.0 0.00 0.00 0.00 48 1011.2
20260830233111 95 141 7.0 12.0 0.00 0.00 0.00 48 1011.1
20260830233012 95 116 7.0 12.0 0.00 0.00 0.00 47 1011.2
20260830232912 95 80 5.0 12.0 0.00 0.00 0.00 48 1011.2
20260830232811 95 93 5.0 12.0 0.00 0.00 0.00 48 1011.2
20260830232712 95 137 5.0 16.0 0.00 0.00 0.00 48 1011.2
20260830232613 95 100 5.0 16.0 0.00 0.00 0.00 48 1011.3
20260830232512 95 196 6.0 16.0 0.00 0.00 0.00 48 1011.3
20260830232412 95 96 5.0 16.0 0.00 0.00 0.00 49 1011.3
20260830232312 95 73 5.0 16.0 0.00 0.00 0.00 50 1011.2
20260830232212 95 100 6.0 16.0 0.00 0.00 0.00 50 1011.3
20260830232111 95 128 6.0 16.0 0.00 0.00 0.00 51 1011.2
20260830232011 95 135 6.0 16.0 0.00 0.00 0.00 51 1011.2
20260830231912 95 117 7.0 16.0 0.00 0.00 0.00 51 1011.2
20260830231811 95 154 7.0 16.0 0.00 0.00 0.00 51 1011.2
20260830231711 95 186 4.0 11.0 0.00 0.00 0.00 52 1011.1
20260830231612 95 104 4.0 11.0 0.00 0.00 0.00 52 1011.1
20260830231512 95 121 4.0 14.0 0.00 0.00 0.00 53 1011.1
20260830231411 95 161 6.0 14.0 0.00 0.00 0.00 53 1011.2
20260830231312 95 80 6.0 14.0 0.00 0.00 0.00 53 1011.1
20260830231212 95 103 6.0 14.0 0.00 0.00 0.00 52 1011.2
20260830231112 95 86 6.0 14.0 0.00 0.00 0.00 52 1011.1
20260830231012 95 100 5.0 14.0 0.00 0.00 0.00 52 1011.2
20260830230912 95 241 6.0 14.0 0.00 0.00 0.00 52 1011.2
20260830230811 95 106 7.0 14.0 0.00 0.00 0.00 52 1011.2
20260830230712 95 107 9.0 14.0 0.00 0.00 0.00 52 1011.3
20260830230612 95 92 9.0 14.0 0.00 0.00 0.00 52 1011.3
20260830230511 95 96 6.0 13.0 0.00 0.00 0.00 52 1011.2
20260830230411 95 107 5.0 11.0 0.00 0.00 0.00 52 1011.2
20260830230311 95 110 5.0 11.0 0.00 0.00 0.00 52 1011.2
20260830230213 95 116 6.0 11.0 0.00 0.00 0.00 51 1011.3
20260830230111 95 121 7.0 11.0 0.00 0.00 0.00 51 1011.2
20260830230010 96 113 5.0 11.0 0.00 0.00 0.00 51 1011.3
20260830225911 96 120 5.0 11.0 0.00 0.00 0.00 52 1011.2
20260830225810 96 148 5.0 11.0 0.00 0.00 0.00 51 1011.2
20260830225711 96 131 5.0 11.0 0.00 0.00 0.00 51 1011.2
20260830225611 96 89 6.0 11.0 0.00 0.00 0.00 51 1011.1
20260830225512 96 114 7.0 11.0 0.00 0.00 0.00 51 1011.3
20260830225411 96 99 7.0 11.0 0.00 0.00 0.00 51 1011.2
20260830225312 96 120 6.0 11.0 0.00 0.00 0.00 50 1011.2
20260830225212 96 190 5.0 11.0 0.00 0.00 0.00 50 1011.2
20260830225112 96 192 6.0 11.0 0.00 0.00 0.00 50 1011.1
20260830225012 96 149 6.0 11.0 0.00 0.00 0.00 50 1011.2
20260830224912 96 123 6.0 11.0 0.00 0.00 0.00 50 1011.1
20260830224812 97 200 5.0 10.0 0.00 0.00 0.00 51 1011.2
20260830224711 97 117 4.0 10.0 0.00 0.00 0.00 51 1011.2
20260830224610 97 155 4.0 10.0 0.00 0.00 0.00 50 1011.2
20260830224511 96 162 4.0 10.0 0.00 0.00 0.00 50 1011.2
20260830224411 97 100 4.0 10.0 0.00 0.00 0.00 50 1011.2
20260830224310 97 87 4.0 10.0 0.00 0.00 0.00 50 1011.2
20260830224211 97 120 3.0 12.0 0.00 0.00 0.00 50 1011.1
20260830224112 97 162 4.0 12.0 0.00 0.00 0.00 49 1011.2
20260830224010 97 182 4.0 12.0 0.00 0.00 0.00 50 1011.2
20260830223910 97 158 5.0 12.0 0.00 0.00 0.00 50 1011.2
20260830223811 97 109 4.0 13.0 0.00 0.00 0.00 50 1011.2
20260830223711 97 114 4.0 13.0 0.00 0.00 0.00 50 1011.1
20260830223611 96 87 4.0 13.0 0.00 0.00 0.00 49 1011.2
20260830223510 96 144 4.0 13.0 0.00 0.00 0.00 50 1011.2
20260830223412 96 185 6.0 13.0 0.00 0.00 0.00 50 1011.1
20260830223310 96 154 7.0 13.0 0.00 0.00 0.00 50 1011.1
20260830223210 96 116 6.0 13.0 0.00 0.00 0.00 50 1011.1
20260830223112 96 92 6.0 13.0 0.00 0.00 0.00 50 1011.1
20260830223010 97 137 9.0 13.0 0.00 0.00 0.00 50 1011.2
20260830222910 97 117 9.0 13.0 0.00 0.00 0.00 50 1011.1
20260830222811 97 92 6.0 13.0 0.00 0.00 0.00 49 1011.1
20260830222712 97 149 4.0 10.0 0.00 0.00 0.00 50 1011.1
20260830222611 97 73 4.0 10.0 0.00 0.00 0.00 50 1011.1
20260830222510 97 133 4.0 10.0 0.00 0.00 0.00 50 1011.1
20260830222412 97 65 4.0 10.0 0.00 0.00 0.00 50 1011.1
20260830222310 97 182 4.0 10.0 0.00 0.00 0.00 50 1011.1
20260830222211 97 138 5.0 10.0 0.00 0.00 0.00 49 1011.1
20260830222111 97 142 5.0 10.0 0.00 0.00 0.00 49 1011.1
20260830222010 98 109 6.0 11.0 0.00 0.00 0.00 49 1011.2
20260830221909 97 147 7.0 11.0 0.00 0.00 0.00 49 1011.1
20260830221810 98 92 6.0 11.0 0.00 0.00 0.00 48 1011.2
20260830221710 98 87 6.0 11.0 0.00 0.00 0.00 49 1011.1
20260830221610 98 107 5.0 11.0 0.00 0.00 0.00 49 1011.2
20260830221509 98 113 4.0 11.0 0.00 0.00 0.00 49 1011.1
20260830221411 98 130 5.0 11.0 0.00 0.00 0.00 49 1011.1
20260830221311 98 130 5.0 14.0 0.00 0.00 0.00 49 1011.1
20260830221211 98 130 5.0 14.0 0.00 0.00 0.00 49 1011.1
20260830221111 98 130 5.0 14.0 0.00 0.00 0.00 49 1011.1
20260830221012 98 106 4.0 14.0 0.00 0.00 0.00 48 1011.2
20260830220910 98 114 4.0 14.0 0.00 0.00 0.00 48 1011.1
20260830220809 98 166 5.0 14.0 0.00 0.00 0.00 48 1011.1
20260830220710 98 152 5.0 14.0 0.00 0.00 0.00 48 1011.2
20260830220611 97 123 5.0 14.0 0.00 0.00 0.00 49 1011.1
20260830220510 97 90 9.0 14.0 0.00 0.00 0.00 48 1011.2
20260830220411 97 109 9.0 14.0 0.00 0.00 0.00 48 1011.2
20260830220311 98 113 7.0 12.0 0.00 0.00 0.00 47 1011.2
20260830220209 98 116 6.0 12.0 0.00 0.00 0.00 48 1011.1
20260830220109 98 55 4.0 12.0 0.00 0.00 0.00 48 1011.1
20260830220009 98 113 5.0 12.0 0.00 0.00 0.00 49 1011.1
20260830215909 97 142 5.0 12.0 0.00 0.00 0.00 49 1011.0
20260830215810 97 120 7.0 13.0 0.00 0.00 0.00 48 1011.0
20260830215710 97 125 9.0 13.0 0.00 0.00 0.00 48 1011.0
20260830215611 97 90 9.0 13.0 0.00 0.00 0.00 48 1011.0
20260830215509 97 125 7.0 13.0 0.00 0.00 0.00 48 1011.1
20260830215409 97 104 6.0 13.0 0.00 0.00 0.00 49 1011.0
20260830215311 97 165 8.0 13.0 0.00 0.00 0.00 49 1011.0
20260830215210 97 96 8.0 13.0 0.00 0.00 0.00 49 1011.1
20260830215110 97 103 8.0 13.0 0.00 0.00 0.00 49 1011.1
20260830215009 97 118 8.0 13.0 0.00 0.00 0.00 49 1011.1
20260830214910 97 130 6.0 13.0 0.00 0.00 0.00 49 1011.2
20260830214809 97 102 5.0 10.0 0.00 0.00 0.00 50 1011.1
20260830214709 97 183 7.0 10.0 0.00 0.00 0.00 50 1011.1
20260830214610 97 111 6.0 10.0 0.00 0.00 0.00 50 1011.1
20260830214509 97 109 6.0 10.0 0.00 0.00 0.00 50 1011.2
20260830214408 97 83 5.0 10.0 0.00 0.00 0.00 50 1011.2
20260830214307 97 106 4.0 11.0 0.00 0.00 0.00 50 1011.2
20260830214204 97 134 4.0 14.0 0.00 0.00 0.00 50 1011.2
20260830214103 98 109 8.0 14.0 0.00 0.00 0.00 49 1011.2
20260830214004 98 109 8.0 14.0 0.00 0.00 0.00 49 1011.2
20260830213903 98 109 8.0 14.0 0.00 0.00 0.00 49 1011.2
20260830213803 98 109 8.0 16.0 0.00 0.00 0.00 49 1011.2
20260830213704 98 109 8.0 16.0 0.00 0.00 0.00 49 1011.3
20260830213603 98 109 8.0 16.0 0.00 0.00 0.00 49 1011.3
20260830213505 98 109 8.0 16.0 0.00 0.00 0.00 49 1011.3
20260830213403 98 109 8.0 16.0 0.00 0.00 0.00 49 1011.3
20260830213302 98 121 8.0 16.0 0.00 0.00 0.00 49 1011.3
20260830213202 98 107 9.0 16.0 0.00 0.00 0.00 49 1011.4
20260830213104 98 110 9.0 16.0 0.00 0.00 0.00 48 1011.4
20260830213002 98 123 9.0 16.0 0.00 0.00 0.00 48 1011.3
20260830212902 98 117 9.0 16.0 0.00 0.00 0.00 48 1011.3
20260830212802 98 100 6.0 15.0 0.00 0.00 0.00 47 1011.4
20260830212702 98 123 4.0 7.0 0.00 0.00 0.00 46 1011.4
20260830212602 98 86 3.0 6.0 0.00 0.00 0.00 46 1011.4
20260830212502 98 162 4.0 6.0 0.00 0.00 0.00 48 1011.3
20260830212402 97 137 4.0 6.0 0.00 0.00 0.00 48 1011.4
20260830212305 97 133 4.0 6.0 0.00 0.00 0.00 48 1011.4
20260830212202 97 145 4.0 6.0 0.00 0.00 0.00 48 1011.4
20260830212103 97 169 3.0 7.0 0.00 0.00 0.00 47 1011.4
20260830212003 97 134 3.0 7.0 0.00 0.00 0.00 48 1011.4
20260830211901 97 138 3.0 7.0 0.00 0.00 0.00 47 1011.4
20260830211759 98 149 3.0 7.0 0.00 0.00 0.00 47 1011.4
20260830211657 98 161 2.0 7.0 0.00 0.00 0.00 47 1011.5
20260830211555 98 141 3.0 7.0 0.00 0.00 0.00 47 1011.5
20260830211455 98 166 4.0 7.0 0.00 0.00 0.00 47 1011.6
20260830211353 98 141 4.0 11.0 0.00 0.00 0.00 47 1011.5
20260830211252 98 104 4.0 11.0 0.00 0.00 0.00 47 1011.5
20260830211149 98 180 4.0 11.0 0.00 0.00 0.00 47 1011.6
20260830211048 98 169 4.0 11.0 0.00 0.00 0.00 47 1011.5
20260830210947 98 125 5.0 11.0 0.00 0.00 0.00 47 1011.6
20260830210847 98 125 4.0 13.0 0.00 0.00 0.00 47 1011.6
20260830210746 98 107 4.0 14.0 0.00 0.00 0.00 47 1011.6
20260830210645 98 90 5.0 14.0 0.00 0.00 0.00 47 1011.6
20260830210543 98 175 6.0 14.0 0.00 0.00 0.00 46 1011.7
20260830210442 98 151 4.0 14.0 0.00 0.00 0.00 47 1011.6
20260830210338 98 109 4.0 14.0 0.00 0.00 0.00 46 1011.7
20260830210238 98 149 4.0 14.0 0.00 0.00 0.00 47 1011.7
20260830210135 99 106 6.0 14.0 0.00 0.00 0.00 46 1011.7
20260830210033 99 120 9.0 14.0 0.00 0.00 0.00 46 1011.7
20260830205931 99 121 9.0 14.0 0.00 0.00 0.00 46 1011.8
20260830205830 100 118 6.0 11.0 0.00 0.00 0.00 45 1011.8
20260830205730 100 176 6.0 11.0 0.00 0.00 0.00 45 1011.8
20260830205632 100 161 4.0 9.0 0.00 0.00 0.00 45 1011.8
20260830205532 100 230 2.0 9.0 0.00 0.00 0.00 46 1011.8
20260830205431 100 171 2.0 9.0 0.00 0.00 0.00 46 1011.8
20260830205331 100 137 3.0 11.0 0.00 0.00 0.00 46 1011.8
20260830205231 100 243 4.0 11.0 0.00 0.00 0.00 46 1011.7
20260830205132 99 148 4.0 11.0 0.00 0.00 0.00 45 1011.8
20260830205031 99 110 4.0 13.0 0.00 0.00 0.00 45 1011.8
20260830204933 100 175 4.0 13.0 0.00 0.00 0.00 45 1011.8
20260830204831 100 188 5.0 13.0 0.00 0.00 0.00 46 1011.8
20260830204731 100 202 5.0 13.0 0.00 0.00 0.00 46 1011.9
20260830204631 100 248 4.0 13.0 0.00 0.00 0.00 46 1011.9
20260830204532 100 238 5.0 13.0 0.00 0.00 0.00 46 1011.9
20260830204432 100 185 6.0 13.0 0.00 0.00 0.00 46 1011.8
20260830204332 100 196 6.0 13.0 0.00 0.00 0.00 46 1011.9
20260830204233 100 213 8.0 13.0 0.00 0.00 0.00 46 1011.9
20260830204131 100 195 7.0 13.0 0.00 0.00 0.00 46 1012.0
20260830204030 100 202 6.0 10.0 0.00 0.00 0.00 47 1012.0
20260830203931 99 179 5.0 10.0 0.00 0.00 0.00 46 1011.9
20260830203831 99 134 4.0 10.0 0.00 0.00 0.00 46 1012.0
20260830203731 99 151 5.0 9.0 0.00 0.00 0.00 46 1012.0
20260830203630 99 128 5.0 9.0 0.00 0.00 0.00 47 1012.1
20260830203531 98 127 4.0 10.0 0.00 0.00 0.00 46 1012.1
20260830203431 99 111 3.0 10.0 0.00 0.00 0.00 45 1012.1
20260830203330 99 79 3.0 10.0 0.00 0.00 0.00 46 1012.1
20260830203228 99 161 4.0 10.0 0.00 0.00 0.00 46 1012.2
20260830203126 99 166 4.0 10.0 0.00 0.00 0.00 47 1012.2
20260830203024 99 135 4.0 10.0 0.00 0.00 0.00 46 1012.1
20260830202923 99 161 3.0 10.0 0.00 0.00 0.00 47 1012.2
20260830202818 99 125 4.0 10.0 0.00 0.00 0.00 47 1012.2
20260830202716 98 135 5.0 10.0 0.00 0.00 0.00 47 1012.2
20260830202616 99 159 5.0 10.0 0.00 0.00 0.00 47 1012.2
20260830202513 99 199 4.0 10.0 0.00 0.00 0.00 47 1012.3
20260830202412 99 142 5.0 10.0 0.00 0.00 0.00 47 1012.2
20260830202312 99 103 6.0 10.0 0.00 0.00 0.00 47 1012.3
20260830202212 100 96 5.0 10.0 0.00 0.00 0.00 46 1012.2
20260830202112 100 152 4.0 7.0 0.00 0.00 0.00 48 1012.2
20260830202009 99 202 4.0 9.0 0.00 0.00 0.00 47 1012.3
20260830201905 99 154 3.0 9.0 0.00 0.00 0.00 47 1012.2
20260830201808 99 121 3.0 9.0 0.00 0.00 0.00 48 1012.3
20260830201705 99 110 4.0 9.0 0.00 0.00 0.00 48 1012.3
20260830201605 99 152 3.0 9.0 0.00 0.00 0.00 47 1012.3
20260830201506 98 182 4.0 9.0 0.00 0.00 0.00 49 1012.3
20260830201407 98 151 4.0 9.0 0.00 0.00 0.00 48 1012.3
20260830201305 98 87 4.0 9.0 0.00 0.00 0.00 47 1012.3
20260830201206 98 111 5.0 9.0 0.00 0.00 0.00 47 1012.3
20260830201107 98 118 4.0 11.0 0.00 0.00 0.00 47 1012.3
20260830201005 98 124 1.0 11.0 0.00 0.00 0.00 47 1012.4
20260830200905 98 257 2.0 11.0 0.00 0.00 0.00 48 1012.3
20260830200808 98 233 4.0 11.0 0.00 0.00 0.00 47 1012.4
20260830200705 98 233 4.0 11.0 0.00 0.00 0.00 48 1012.4
20260830200605 98 283 3.0 11.0 0.00 0.00 0.00 48 1012.4
20260830200505 98 210 4.0 11.0 0.00 0.00 0.00 48 1012.4
20260830200407 98 230 7.0 11.0 0.00 0.00 0.00 48 1012.4
20260830200305 98 248 8.0 11.0 0.00 0.00 0.00 49 1012.5
20260830200206 98 231 9.0 11.0 0.00 0.00 0.00 49 1012.5
20260830200105 98 244 7.0 11.0 0.00 0.00 0.00 48 1012.5
20260830200005 98 241 6.0 11.0 0.00 0.00 0.00 48 1012.5
20260830195905 98 195 6.0 11.0 0.00 0.00 0.00 49 1012.6
20260830195805 98 257 7.0 11.0 0.00 0.00 0.00 49 1012.6
20260830195707 98 250 7.0 11.0 0.00 0.00 0.00 48 1012.6
20260830195604 98 235 6.0 11.0 0.00 0.00 0.00 48 1012.6
20260830195504 99 250 6.0 11.0 0.00 0.00 0.00 48 1012.6
20260830195405 99 241 3.0 11.0 0.00 0.00 0.00 49 1012.6
20260830195305 98 114 2.0 7.0 0.00 0.00 0.00 49 1012.6
20260830195204 98 113 4.0 9.0 0.00 0.00 0.00 48 1012.5
20260830195104 98 286 6.0 9.0 0.00 0.00 0.00 48 1012.7
20260830195007 99 224 4.0 9.0 0.00 0.00 0.00 49 1012.6
20260830194903 98 235 2.0 9.0 0.00 0.00 0.00 50 1012.7
20260830194803 98 152 2.0 9.0 0.00 0.00 0.00 49 1012.7
20260830194701 98 193 2.0 9.0 0.00 0.00 0.00 49 1012.7
20260830194601 98 157 3.0 9.0 0.00 0.00 0.00 49 1012.7
20260830194503 98 188 4.0 9.0 0.00 0.00 0.00 51 1012.8
20260830194402 97 100 6.0 9.0 0.00 0.00 0.00 50 1012.8
20260830194302 98 111 5.0 9.0 0.00 0.00 0.00 50 1012.8
20260830194203 98 99 4.0 9.0 0.00 0.00 0.00 49 1012.9
20260830194102 98 144 4.0 9.0 0.00 0.00 0.00 49 1012.8
20260830194004 98 151 4.0 9.0 0.00 0.00 0.00 50 1012.9
20260830193903 98 182 4.0 7.0 0.00 0.00 0.00 50 1012.9
20260830193804 97 233 5.0 10.0 0.00 0.00 0.00 50 1012.9
20260830193702 98 240 5.0 10.0 0.00 0.00 0.00 49 1012.9
20260830193602 98 262 4.0 10.0 0.00 0.00 0.00 49 1013.0
20260830193504 98 233 4.0 10.0 0.00 0.00 0.00 49 1013.0
20260830193404 98 238 3.0 10.0 0.00 0.00 0.00 50 1013.1
20260830193303 98 4 2.0 10.0 0.00 0.00 0.00 49 1013.1
20260830193204 98 110 5.0 10.0 0.00 0.00 0.00 49 1013.1
20260830193103 98 110 5.0 10.0 0.00 0.00 0.00 49 1013.1
20260830193004 98 110 5.0 10.0 0.00 0.00 0.00 49 1013.1
20260830192903 98 97 4.0 10.0 0.00 0.00 0.00 49 1013.2
20260830192804 98 96 4.0 10.0 0.00 0.00 0.00 50 1013.2
20260830192702 98 175 4.0 10.0 0.00 0.00 0.00 49 1013.2
20260830192602 98 93 3.0 10.0 0.00 0.00 0.00 50 1013.3
20260830192503 98 202 5.0 10.0 0.00 0.00 0.00 50 1013.2
20260830192403 98 165 6.0 10.0 0.00 0.00 0.00 50 1013.2
20260830192305 98 152 4.0 10.0 0.00 0.00 0.00 51 1013.3
20260830192202 97 106 4.0 9.0 0.00 0.00 0.00 51 1013.3
20260830192104 97 276 4.0 9.0 0.00 0.00 0.00 50 1013.3
20260830192001 97 262 4.0 9.0 0.00 0.00 0.00 50 1013.3
20260830191903 98 279 5.0 9.0 0.00 0.00 0.00 50 1013.3
20260830191804 98 245 6.0 9.0 0.00 0.00 0.00 50 1013.3
20260830191703 98 252 6.0 9.0 0.00 0.00 0.00 49 1013.4
20260830191602 98 220 5.0 9.0 0.00 0.00 0.00 51 1013.4
20260830191503 98 227 4.0 6.0 0.00 0.00 0.00 51 1013.4
20260830191404 97 230 3.0 6.0 0.00 0.00 0.00 51 1013.4
20260830191304 97 307 2.0 6.0 0.00 0.00 0.00 50 1013.5
20260830191203 97 309 2.0 6.0 0.00 0.00 0.00 49 1013.4
20260830191104 98 254 2.0 6.0 0.00 0.00 0.00 49 1013.6
20260830191004 98 252 2.0 6.0 0.00 0.00 0.00 50 1013.5
20260830190902 98 207 3.0 10.0 0.00 0.00 0.00 49 1013.6
20260830190802 98 92 3.0 10.0 0.00 0.00 0.00 49 1013.6
20260830190702 98 147 3.0 10.0 0.00 0.00 0.00 50 1013.5
20260830190602 98 186 4.0 10.0 0.00 0.00 0.00 49 1013.6
20260830190503 98 110 4.0 10.0 0.00 0.00 0.00 49 1013.5
20260830190403 98 165 2.0 10.0 0.00 0.00 0.00 50 1013.5
20260830190302 98 169 1.0 10.0 0.00 0.00 0.00 51 1013.6
20260830190202 98 90 2.0 10.0 0.00 0.00 0.00 51 1013.6
20260830190103 98 118 4.0 10.0 0.00 0.00 0.00 52 1013.7
20260830190004 97 120 4.0 10.0 0.00 0.00 0.00 51 1013.7
20260830185904 97 96 2.0 7.0 0.00 0.00 0.00 51 1013.6
20260830185804 97 85 2.0 7.0 0.00 0.00 0.00 51 1013.6
20260830185703 97 68 2.0 7.0 0.00 0.00 0.00 52 1013.8
20260830185603 97 94 2.0 7.0 0.00 0.00 0.00 51 1013.7
20260830185502 97 104 2.0 7.0 0.00 0.00 0.00 51 1013.8
20260830185403 97 103 3.0 7.0 0.00 0.00 0.00 51 1013.8
20260830185306 97 172 4.0 7.0 0.00 0.00 0.00 51 1013.8
20260830185201 97 250 3.0 7.0 0.00 0.00 0.00 51 1013.9
20260830185102 97 140 2.0 6.0 0.00 0.00 0.00 51 1013.8
20260830185005 97 172 2.0 6.0 0.00 0.00 0.00 51 1013.9
20260830184902 97 140 2.0 6.0 0.00 0.00 0.00 51 1013.9
20260830184802 97 157 2.0 6.0 0.00 0.00 0.00 52 1013.8
20260830184703 97 11 5.0 6.0 0.00 0.00 0.00 52 1013.8
20260830184604 97 11 5.0 10.0 0.00 0.00 0.00 52 1013.8
20260830184505 97 11 5.0 10.0 0.00 0.00 0.00 52 1013.9
20260830184359 97 358 5.0 10.0 0.00 0.00 0.00 52 1013.9
20260830184258 97 8 3.0 10.0 0.00 0.00 0.00 52 1013.9
20260830184156 96 0 3.0 10.0 0.00 0.00 0.00 52 1013.9
20260830184054 96 0 3.0 10.0 0.00 0.00 0.00 52 1013.9
20260830183952 96 38 2.0 10.0 0.00 0.00 0.00 53 1014.0
20260830183851 96 264 4.0 10.0 0.00 0.00 0.00 53 1014.0
20260830183750 96 245 6.0 10.0 0.00 0.00 0.00 53 1014.0
20260830183648 96 255 6.0 10.0 0.00 0.00 0.00 53 1014.0
20260830183546 96 252 4.0 9.0 0.00 0.00 0.00 52 1014.0
20260830183446 96 235 6.0 9.0 0.00 0.00 0.00 53 1014.0
20260830183344 96 241 6.0 9.0 0.00 0.00 0.00 53 1014.0
20260830183242 96 251 6.0 9.0 0.00 0.00 0.00 53 1014.0
20260830183140 96 259 6.0 9.0 0.00 0.00 0.00 52 1014.0
20260830183040 97 243 4.0 6.0 0.00 0.00 0.00 53 1014.1
20260830182937 96 254 4.0 6.0 0.00 0.00 0.00 53 1014.0
20260830182834 97 130 4.0 6.0 0.00 0.00 0.00 53 1014.1
20260830182735 96 165 4.0 6.0 0.00 0.00 0.00 54 1014.1
20260830182633 96 157 2.0 5.0 0.00 0.00 0.00 54 1014.1
20260830182532 96 313 2.0 6.0 0.00 0.00 0.00 55 1014.1
20260830182432 96 111 1.0 6.0 0.00 0.00 0.00 55 1014.1
20260830182331 96 69 2.0 6.0 0.00 0.00 0.00 55 1014.2
20260830182233 96 69 2.0 9.0 0.00 0.00 0.00 55 1014.2
20260830182131 95 82 1.0 9.0 0.00 0.00 0.00 56 1014.2
20260830182031 95 80 1.0 9.0 0.00 0.00 0.00 57 1014.2
20260830181932 94 82 1.0 9.0 0.00 0.00 0.00 57 1014.3
20260830181831 94 82 2.0 9.0 0.00 0.00 0.00 57 1014.3
20260830181732 94 82 4.0 9.0 0.00 0.00 0.00 57 1014.3
20260830181631 94 85 5.0 9.0 0.00 0.00 0.00 57 1014.4
20260830181532 94 83 5.0 9.0 0.00 0.00 0.00 57 1014.4
20260830181431 95 94 5.0 9.0 0.00 0.00 0.00 57 1014.4
20260830181333 95 103 5.0 9.0 0.00 0.00 0.00 56 1014.4
20260830181231 95 138 4.0 6.0 0.00 0.00 0.00 56 1014.5
20260830181132 95 109 3.0 6.0 0.00 0.00 0.00 56 1014.4
20260830181032 96 110 3.0 5.0 0.00 0.00 0.00 56 1014.5
20260830180932 95 231 3.0 6.0 0.00 0.00 0.00 57 1014.4
20260830180833 95 226 2.0 6.0 0.00 0.00 0.00 57 1014.4
20260830180731 94 293 3.0 7.0 0.00 0.00 0.00 56 1014.5
20260830180629 94 302 4.0 7.0 0.00 0.00 0.00 55 1014.5
20260830180528 94 281 3.0 7.0 0.00 0.00 0.00 56 1014.5
20260830180425 95 299 3.0 9.0 0.00 0.00 0.00 55 1014.5
20260830180324 95 299 3.0 9.0 0.00 0.00 0.00 55 1014.5
20260830180224 95 254 4.0 9.0 0.00 0.00 0.00 56 1014.6
20260830180121 95 254 5.0 9.0 0.00 0.00 0.00 56 1014.6
20260830180019 96 230 5.0 9.0 0.00 0.00 0.00 55 1014.6
20260830175917 96 214 5.0 9.0 0.00 0.00 0.00 55 1014.6
20260830175816 96 241 4.0 9.0 0.00 0.00 0.00 55 1014.7
20260830175716 96 199 3.0 9.0 0.00 0.00 0.00 56 1014.6
20260830175615 96 202 4.0 9.0 0.00 0.00 0.00 57 1014.7
20260830175512 95 157 5.0 9.0 0.00 0.00 0.00 57 1014.7
20260830175411 95 217 2.0 9.0 0.00 0.00 0.00 57 1014.7
20260830175310 94 92 2.0 5.0 0.00 0.00 0.00 57 1014.7
20260830175205 94 90 2.0 5.0 0.00 0.00 0.00 57 1014.7
20260830175103 94 87 3.0 9.0 0.00 0.00 0.00 57 1014.7
20260830175002 94 86 4.0 9.0 0.00 0.00 0.00 57 1014.8
20260830174903 95 80 4.0 9.0 0.00 0.00 0.00 57 1014.8
20260830174803 95 92 4.0 9.0 0.00 0.00 0.00 57 1014.8
20260830174702 95 86 3.0 9.0 0.00 0.00 0.00 57 1014.8
20260830174602 95 0 2.0 9.0 0.00 0.00 0.00 57 1014.8
20260830174503 95 281 2.0 9.0 0.00 0.00 0.00 57 1014.8
20260830174402 95 247 3.0 9.0 0.00 0.00 0.00 58 1014.8
20260830174302 94 251 4.0 9.0 0.00 0.00 0.00 57 1014.8
20260830174203 95 227 3.0 9.0 0.00 0.00 0.00 57 1014.8
20260830174102 95 168 3.0 9.0 0.00 0.00 0.00 57 1014.8
20260830174001 95 196 5.0 9.0 0.00 0.00 0.00 57 1014.8
20260830173903 95 190 5.0 9.0 0.00 0.00 0.00 57 1014.8
20260830173803 95 204 5.0 9.0 0.00 0.00 0.00 58 1014.9
20260830173702 95 210 5.0 9.0 0.00 0.00 0.00 59 1014.9
20260830173602 94 224 3.0 9.0 0.00 0.00 0.00 59 1014.9
20260830173503 94 334 1.0 7.0 0.00 0.00 0.00 59 1014.9
20260830173402 94 336 1.0 7.0 0.00 0.00 0.00 59 1014.9
20260830173302 94 279 2.0 7.0 0.00 0.00 0.00 58 1014.9
20260830173203 94 279 3.0 7.0 0.00 0.00 0.00 58 1015.0
20260830173103 94 231 4.0 7.0 0.00 0.00 0.00 59 1015.0
20260830173002 94 259 4.0 7.0 0.00 0.00 0.00 58 1015.0
20260830172901 94 269 2.0 5.0 0.00 0.00 0.00 59 1015.1
20260830172803 94 293 1.0 4.0 0.00 0.00 0.00 59 1015.0
20260830172702 94 357 2.0 5.0 0.00 0.00 0.00 59 1015.1
20260830172602 94 357 2.0 5.0 0.00 0.00 0.00 58 1015.0
20260830172503 94 355 2.0 5.0 0.00 0.00 0.00 59 1015.1
20260830172402 94 351 2.0 5.0 0.00 0.00 0.00 59 1015.1
20260830172306 94 310 1.0 5.0 0.00 0.00 0.00 59 1015.1
20260830172204 94 310 0.0 5.0 0.00 0.00 0.00 59 1015.1
20260830172104 94 266 1.0 5.0 0.00 0.00 0.00 58 1015.1
20260830172003 94 266 2.0 5.0 0.00 0.00 0.00 58 1015.1
20260830171902 94 257 2.0 5.0 0.00 0.00 0.00 58 1015.3
20260830171801 94 200 2.0 5.0 0.00 0.00 0.00 59 1015.3
20260830171702 94 30 1.0 5.0 0.00 0.00 0.00 59 1015.2
20260830171602 94 0 1.0 5.0 0.00 0.00 0.00 59 1015.2
20260830171502 93 0 1.0 5.0 0.00 0.00 0.00 60 1015.2
20260830171403 93 0 2.0 5.0 0.00 0.00 0.00 59 1015.2
20260830171302 94 0 2.0 5.0 0.00 0.00 0.00 58 1015.2
20260830171202 94 0 2.0 5.0 0.00 0.00 0.00 58 1015.2
20260830171104 94 96 2.0 5.0 0.00 0.00 0.00 58 1015.2
20260830171002 94 144 2.0 5.0 0.00 0.00 0.00 58 1015.2
20260830170901 94 195 1.0 5.0 0.00 0.00 0.00 59 1015.2
20260830170802 94 127 2.0 7.0 0.00 0.00 0.00 59 1015.2
20260830170702 94 127 2.0 10.0 0.00 0.00 0.00 59 1015.2
20260830170603 93 118 2.0 10.0 0.00 0.00 0.00 59 1015.2
20260830170502 94 179 2.0 10.0 0.00 0.00 0.00 60 1015.2
20260830170402 93 130 2.0 10.0 0.00 0.00 0.00 60 1015.2
20260830170302 93 96 3.0 10.0 0.00 0.00 0.00 59 1015.2
20260830170201 93 152 3.0 10.0 0.00 0.00 0.00 60 1015.2
20260830170101 93 180 4.0 10.0 0.00 0.00 0.00 61 1015.2
20260830170001 92 243 5.0 10.0 0.00 0.00 0.00 61 1015.1
20260830165901 92 264 5.0 10.0 0.00 0.00 0.00 60 1015.2
20260830165801 92 213 4.0 10.0 0.00 0.00 0.00 62 1015.1
20260830165701 92 243 1.0 5.0 0.00 0.00 0.00 62 1015.1
20260830165602 92 298 1.0 5.0 0.00 0.00 0.00 63 1015.2
20260830165500 92 305 2.0 5.0 0.00 0.00 0.00 63 1015.2
20260830165402 92 306 3.0 5.0 0.00 0.00 0.00 62 1015.1
20260830165305 92 307 4.0 5.0 0.00 0.00 0.00 62 1015.2
20260830165202 92 307 4.0 6.0 0.00 0.00 0.00 62 1015.2
20260830165103 93 324 1.0 7.0 0.00 0.00 0.00 63 1015.2
20260830165002 93 324 1.0 7.0 0.00 0.00 0.00 63 1015.2
20260830164904 93 324 1.0 7.0 0.00 0.00 0.00 63 1015.2
20260830164801 93 324 1.0 7.0 0.00 0.00 0.00 63 1015.2
20260830164700 92 302 1.0 7.0 0.00 0.00 0.00 64 1015.2
20260830164602 92 302 2.0 7.0 0.00 0.00 0.00 65 1015.3
20260830164501 92 180 2.0 7.0 0.00 0.00 0.00 65 1015.2
20260830164400 92 254 4.0 7.0 0.00 0.00 0.00 66 1015.3
20260830164302 92 254 5.0 7.0 0.00 0.00 0.00 65 1015.3
20260830164200 92 255 4.0 7.0 0.00 0.00 0.00 64 1015.2
20260830164101 92 276 3.0 6.0 0.00 0.00 0.00 65 1015.1
20260830164001 92 266 2.0 6.0 0.00 0.00 0.00 65 1015.2
20260830163901 92 210 2.0 6.0 0.00 0.00 0.00 66 1015.2
20260830163800 92 0 2.0 7.0 0.00 0.00 0.00 67 1015.2
20260830163701 92 274 2.0 7.0 0.00 0.00 0.00 67 1015.2
20260830163602 91 274 3.0 7.0 0.00 0.00 0.00 67 1015.2
20260830163501 91 248 3.0 7.0 0.00 0.00 0.00 67 1015.2
20260830163400 91 320 3.0 7.0 0.00 0.00 0.00 66 1015.2
20260830163300 92 331 1.0 7.0 0.00 0.00 0.00 66 1015.3
20260830163201 92 276 2.0 7.0 0.00 0.00 0.00 66 1015.3
20260830163101 92 276 4.0 7.0 0.00 0.00 0.00 66 1015.3
20260830163000 92 245 5.0 7.0 0.00 0.00 0.00 66 1015.3
20260830162903 92 261 4.0 7.0 0.00 0.00 0.00 66 1015.3
20260830162801 92 261 4.0 7.0 0.00 0.00 0.00 65 1015.3
20260830162700 93 255 4.0 7.0 0.00 0.00 0.00 65 1015.2
20260830162601 93 255 3.0 6.0 0.00 0.00 0.00 65 1015.4
20260830162500 93 212 2.0 6.0 0.00 0.00 0.00 64 1015.3
20260830162400 93 165 3.0 6.0 0.00 0.00 0.00 65 1015.3
20260830162300 93 255 2.0 6.0 0.00 0.00 0.00 65 1015.3
20260830162203 92 262 2.0 5.0 0.00 0.00 0.00 65 1015.4
20260830162100 92 185 3.0 5.0 0.00 0.00 0.00 66 1015.3
20260830162000 92 285 3.0 5.0 0.00 0.00 0.00 67 1015.3
20260830161900 92 161 2.0 5.0 0.00 0.00 0.00 67 1015.3
20260830161759 91 175 2.0 5.0 0.00 0.00 0.00 68 1015.3
20260830161700 91 158 2.0 5.0 0.00 0.00 0.00 68 1015.3
20260830161601 91 288 2.0 5.0 0.00 0.00 0.00 68 1015.2
20260830161502 91 288 2.0 5.0 0.00 0.00 0.00 68 1015.3
20260830161401 90 240 2.0 5.0 0.00 0.00 0.00 68 1015.3
20260830161300 90 240 2.0 5.0 0.00 0.00 0.00 68 1015.3
20260830161201 90 240 2.0 5.0 0.00 0.00 0.00 68 1015.2
20260830161101 90 276 2.0 4.0 0.00 0.00 0.00 68 1015.3
20260830161001 90 258 2.0 4.0 0.00 0.00 0.00 67 1015.3
20260830160900 90 262 2.0 4.0 0.00 0.00 0.00 67 1015.3
20260830160800 90 268 3.0 4.0 0.00 0.00 0.00 68 1015.3
20260830160701 91 238 3.0 5.0 0.00 0.00 0.00 67 1015.4
20260830160600 91 261 1.0 6.0 0.00 0.00 0.00 67 1015.3
20260830160500 90 219 1.0 6.0 0.00 0.00 0.00 68 1015.3
20260830160401 90 210 2.0 6.0 0.00 0.00 0.00 68 1015.3
20260830160259 90 209 2.0 6.0 0.00 0.00 0.00 68 1015.3
20260830160159 90 207 2.0 6.0 0.00 0.00 0.00 69 1015.3
20260830160059 90 250 2.0 6.0 0.00 0.00 0.00 68 1015.3
20260830160000 90 250 3.0 6.0 0.00 0.00 0.00 69 1015.4
20260830155859 90 250 4.0 6.0 0.00 0.00 0.00 69 1015.3
20260830155801 90 240 4.0 6.0 0.00 0.00 0.00 69 1015.3
20260830155659 90 233 3.0 6.0 0.00 0.00 0.00 69 1015.3
20260830155600 90 248 4.0 6.0 0.00 0.00 0.00 69 1015.2
20260830155459 90 233 4.0 6.0 0.00 0.00 0.00 69 1015.3
20260830155359 90 247 3.0 5.0 0.00 0.00 0.00 69 1015.3
20260830155300 89 269 2.0 5.0 0.00 0.00 0.00 70 1015.3
20260830155200 89 233 2.0 5.0 0.00 0.00 0.00 69 1015.3
20260830155100 89 303 1.0 4.0 0.00 0.00 0.00 70 1015.3
20260830154959 89 303 1.0 5.0 0.00 0.00 0.00 70 1015.3
20260830154859 89 303 2.0 5.0 0.00 0.00 0.00 70 1015.3
20260830154800 89 303 2.0 6.0 0.00 0.00 0.00 69 1015.4
20260830154700 89 278 1.0 6.0 0.00 0.00 0.00 69 1015.3
20260830154559 89 233 1.0 6.0 0.00 0.00 0.00 69 1015.4
20260830154459 89 233 1.0 6.0 0.00 0.00 0.00 69 1015.3
20260830154402 89 238 2.0 7.0 0.00 0.00 0.00 69 1015.4
20260830154259 89 254 3.0 9.0 0.00 0.00 0.00 69 1015.4
20260830154202 89 254 3.0 9.0 0.00 0.00 0.00 69 1015.3
20260830154100 89 234 3.0 9.0 0.00 0.00 0.00 69 1015.3
20260830154001 89 248 3.0 9.0 0.00 0.00 0.00 68 1015.4
20260830153900 90 221 3.0 9.0 0.00 0.00 0.00 69 1015.4
20260830153800 90 179 3.0 9.0 0.00 0.00 0.00 69 1015.3
20260830153700 89 185 4.0 9.0 0.00 0.00 0.00 70 1015.4
20260830153559 89 228 5.0 9.0 0.00 0.00 0.00 70 1015.3
20260830153500 89 219 5.0 9.0 0.00 0.00 0.00 70 1015.4
20260830153400 89 197 2.0 9.0 0.00 0.00 0.00 72 1015.4
20260830153301 89 182 1.0 5.0 0.00 0.00 0.00 71 1015.4
20260830153159 89 182 2.0 5.0 0.00 0.00 0.00 72 1015.4
20260830153059 89 131 3.0 5.0 0.00 0.00 0.00 72 1015.3
20260830153001 89 137 2.0 5.0 0.00 0.00 0.00 72 1015.4
20260830152859 89 200 3.0 5.0 0.00 0.00 0.00 72 1015.4
20260830152759 89 157 3.0 5.0 0.00 0.00 0.00 73 1015.4
20260830152659 89 135 2.0 5.0 0.00 0.00 0.00 74 1015.4
20260830152600 89 106 2.0 5.0 0.00 0.00 0.00 73 1015.4
20260830152458 88 329 3.0 5.0 0.00 0.00 0.00 72 1015.5
20260830152358 88 285 3.0 5.0 0.00 0.00 0.00 72 1015.4
20260830152301 88 286 4.0 5.0 0.00 0.00 0.00 73 1015.5
20260830152158 88 265 4.0 5.0 0.00 0.00 0.00 73 1015.4
20260830152059 88 264 4.0 5.0 0.00 0.00 0.00 74 1015.5
20260830152000 88 237 3.0 5.0 0.00 0.00 0.00 75 1015.5
20260830151900 88 83 2.0 5.0 0.00 0.00 0.00 75 1015.4
20260830151759 87 264 0.0 5.0 0.00 0.00 0.00 75 1015.4
20260830151658 87 264 0.0 6.0 0.00 0.00 0.00 76 1015.4
20260830151600 87 264 0.0 6.0 0.00 0.00 0.00 76 1015.4
20260830151459 87 264 1.0 6.0 0.00 0.00 0.00 76 1015.4
20260830151358 87 264 2.0 6.0 0.00 0.00 0.00 76 1015.4
20260830151259 87 264 2.0 6.0 0.00 0.00 0.00 76 1015.4
20260830151159 87 262 3.0 6.0 0.00 0.00 0.00 76 1015.4
20260830151100 87 257 3.0 6.0 0.00 0.00 0.00 76 1015.4
20260830150958 87 261 3.0 6.0 0.00 0.00 0.00 76 1015.4
20260830150900 87 286 4.0 6.0 0.00 0.00 0.00 75 1015.4
20260830150758 87 261 3.0 6.0 0.00 0.00 0.00 75 1015.3
20260830150659 87 290 1.0 6.0 0.00 0.00 0.00 76 1015.4
20260830150559 87 259 1.0 6.0 0.00 0.00 0.00 76 1015.3
20260830150459 87 251 4.0 6.0 0.00 0.00 0.00 75 1015.3
20260830150358 87 261 4.0 6.0 0.00 0.00 0.00 76 1015.3
20260830150258 87 255 2.0 6.0 0.00 0.00 0.00 76 1015.3
20260830150201 87 257 1.0 6.0 0.00 0.00 0.00 76 1015.3
20260830150059 87 224 2.0 6.0 0.00 0.00 0.00 76 1015.2
20260830145958 87 221 3.0 6.0 0.00 0.00 0.00 76 1015.2
20260830145900 87 276 3.0 6.0 0.00 0.00 0.00 76 1015.3
20260830145758 87 224 4.0 6.0 0.00 0.00 0.00 77 1015.2
20260830145658 87 234 3.0 6.0 0.00 0.00 0.00 77 1015.3
20260830145558 87 220 2.0 5.0 0.00 0.00 0.00 78 1015.3
20260830145500 87 317 3.0 5.0 0.00 0.00 0.00 77 1015.3
20260830145358 87 317 3.0 5.0 0.00 0.00 0.00 76 1015.3
20260830145258 87 298 2.0 5.0 0.00 0.00 0.00 76 1015.3
20260830145159 87 298 2.0 5.0 0.00 0.00 0.00 76 1015.3
20260830145059 87 298 3.0 5.0 0.00 0.00 0.00 76 1015.2
20260830144958 87 223 2.0 5.0 0.00 0.00 0.00 78 1015.2
20260830144901 87 93 1.0 5.0 0.00 0.00 0.00 78 1015.2
20260830144800 87 93 1.0 5.0 0.00 0.00 0.00 79 1015.3
20260830144658 87 125 2.0 5.0 0.00 0.00 0.00 80 1015.3
20260830144557 86 148 3.0 5.0 0.00 0.00 0.00 80 1015.3
20260830144455 86 193 3.0 6.0 0.00 0.00 0.00 80 1015.4
20260830144355 85 140 1.0 6.0 0.00 0.00 0.00 80 1015.3
20260830144253 85 274 1.0 6.0 0.00 0.00 0.00 80 1015.3
20260830144150 85 274 1.0 6.0 0.00 0.00 0.00 80 1015.3
20260830144049 85 274 1.0 6.0 0.00 0.00 0.00 80 1015.3
20260830143948 85 274 3.0 6.0 0.00 0.00 0.00 80 1015.4
20260830143846 85 274 3.0 6.0 0.00 0.00 0.00 79 1015.5
20260830143745 85 274 3.0 6.0 0.00 0.00 0.00 79 1015.4
20260830143644 86 257 4.0 6.0 0.00 0.00 0.00 79 1015.4
20260830143544 86 238 5.0 6.0 0.00 0.00 0.00 80 1015.4
20260830143440 86 244 5.0 6.0 0.00 0.00 0.00 80 1015.5
20260830143339 85 233 4.0 6.0 0.00 0.00 0.00 80 1015.4
20260830143238 85 258 3.0 6.0 0.00 0.00 0.00 80 1015.5
20260830143135 85 188 3.0 6.0 0.00 0.00 0.00 81 1015.4
20260830143035 85 173 4.0 6.0 0.00 0.00 0.00 82 1015.4
20260830142933 85 197 3.0 5.0 0.00 0.00 0.00 82 1015.4
20260830142830 85 252 1.0 5.0 0.00 0.00 0.00 83 1015.4
20260830142730 85 250 2.0 5.0 0.00 0.00 0.00 82 1015.4
20260830142632 85 250 2.0 5.0 0.00 0.00 0.00 82 1015.5
20260830142531 85 259 3.0 5.0 0.00 0.00 0.00 82 1015.4
20260830142431 85 259 4.0 5.0 0.00 0.00 0.00 83 1015.4
20260830142332 85 255 3.0 5.0 0.00 0.00 0.00 83 1015.5
20260830142232 85 269 2.0 5.0 0.00 0.00 0.00 82 1015.5
20260830142131 85 269 3.0 5.0 0.00 0.00 0.00 83 1015.5
20260830142031 85 269 2.0 5.0 0.00 0.00 0.00 83 1015.5
20260830141932 85 257 1.0 5.0 0.00 0.00 0.00 84 1015.5
20260830141831 84 261 1.0 6.0 0.00 0.00 0.00 83 1015.6
20260830141732 84 261 2.0 6.0 0.00 0.00 0.00 84 1015.5
20260830141633 84 238 4.0 6.0 0.00 0.00 0.00 83 1015.5
20260830141532 84 248 2.0 6.0 0.00 0.00 0.00 84 1015.6
20260830141431 84 274 2.0 6.0 0.00 0.00 0.00 84 1015.5
20260830141329 84 314 3.0 6.0 0.00 0.00 0.00 84 1015.5
20260830141229 84 314 2.0 6.0 0.00 0.00 0.00 84 1015.5
20260830141126 84 307 3.0 6.0 0.00 0.00 0.00 85 1015.5
20260830141026 84 303 5.0 6.0 0.00 0.00 0.00 84 1015.4
20260830140924 84 281 4.0 6.0 0.00 0.00 0.00 84 1015.4
20260830140822 84 282 4.0 6.0 0.00 0.00 0.00 84 1015.4
20260830140721 84 230 5.0 6.0 0.00 0.00 0.00 84 1015.4
20260830140619 84 247 5.0 6.0 0.00 0.00 0.00 85 1015.4
20260830140519 84 230 4.0 5.0 0.00 0.00 0.00 85 1015.4
20260830140416 83 259 4.0 5.0 0.00 0.00 0.00 86 1015.4
20260830140310 83 244 3.0 5.0 0.00 0.00 0.00 86 1015.3
20260830140209 83 276 2.0 5.0 0.00 0.00 0.00 86 1015.3
20260830140109 83 278 2.0 5.0 0.00 0.00 0.00 86 1015.3
20260830140010 83 310 2.0 5.0 0.00 0.00 0.00 86 1015.3
20260830135906 83 310 3.0 5.0 0.00 0.00 0.00 86 1015.2
20260830135807 83 310 3.0 5.0 0.00 0.00 0.00 86 1015.2
20260830135704 83 310 2.0 4.0 0.00 0.00 0.00 87 1015.2
20260830135604 83 312 2.0 3.0 0.00 0.00 0.00 87 1015.2
20260830135503 83 312 3.0 3.0 0.00 0.00 0.00 87 1015.2
20260830135402 83 312 2.0 4.0 0.00 0.00 0.00 87 1015.2
20260830135306 83 281 1.0 4.0 0.00 0.00 0.00 87 1015.2
20260830135203 83 279 0.0 4.0 0.00 0.00 0.00 87 1015.2
20260830135102 83 279 1.0 4.0 0.00 0.00 0.00 87 1015.2
20260830135003 83 279 1.0 4.0 0.00 0.00 0.00 88 1015.3
20260830134903 83 279 1.0 4.0 0.00 0.00 0.00 88 1015.1
20260830134803 82 279 1.0 4.0 0.00 0.00 0.00 88 1015.1
20260830134702 82 279 2.0 4.0 0.00 0.00 0.00 88 1015.1
20260830134604 82 279 2.0 4.0 0.00 0.00 0.00 88 1015.0
20260830134503 82 279 2.0 4.0 0.00 0.00 0.00 88 1015.1
20260830134402 82 279 2.0 4.0 0.00 0.00 0.00 88 1015.1
20260830134304 82 279 2.0 4.0 0.00 0.00 0.00 88 1015.0
20260830134202 82 279 1.0 4.0 0.00 0.00 0.00 88 1015.0
20260830134102 82 279 0.0 4.0 0.00 0.00 0.00 88 1015.0
20260830134003 82 279 1.0 4.0 0.00 0.00 0.00 88 1015.0
20260830133903 82 279 2.0 4.0 0.00 0.00 0.00 88 1015.0
20260830133803 82 279 2.0 4.0 0.00 0.00 0.00 88 1015.0
20260830133703 82 279 1.0 3.0 0.00 0.00 0.00 89 1015.0
20260830133604 82 279 1.0 3.0 0.00 0.00 0.00 88 1015.0
20260830133503 82 279 2.0 3.0 0.00 0.00 0.00 89 1015.0
20260830133402 82 279 2.0 3.0 0.00 0.00 0.00 89 1015.0
20260830133305 82 279 1.0 3.0 0.00 0.00 0.00 89 1015.0
20260830133204 82 281 0.0 3.0 0.00 0.00 0.00 89 1015.0
20260830133102 82 281 0.0 3.0 0.00 0.00 0.00 89 1015.0
20260830133002 81 281 0.0 3.0 0.00 0.00 0.00 89 1015.0
20260830132903 81 281 0.0 3.0 0.00 0.00 0.00 89 1015.0
20260830132804 81 281 1.0 3.0 0.00 0.00 0.00 89 1014.9
20260830132702 81 281 1.0 3.0 0.00 0.00 0.00 89 1014.9
20260830132604 81 281 1.0 3.0 0.00 0.00 0.00 89 1014.9
20260830132503 81 281 1.0 3.0 0.00 0.00 0.00 90 1014.9
20260830132402 81 281 0.0 3.0 0.00 0.00 0.00 90 1014.9
20260830132305 81 281 0.0 3.0 0.00 0.00 0.00 90 1014.8
20260830132202 81 281 0.0 3.0 0.00 0.00 0.00 90 1014.9
20260830132102 81 281 0.0 3.0 0.00 0.00 0.00 90 1014.8
20260830132004 81 281 1.0 3.0 0.00 0.00 0.00 90 1014.9
20260830131903 81 281 1.0 3.0 0.00 0.00 0.00 91 1014.9
20260830131803 81 281 1.0 3.0 0.00 0.00 0.00 91 1014.8
20260830131703 81 248 1.0 3.0 0.00 0.00 0.00 91 1014.9
20260830131604 81 248 2.0 3.0 0.00 0.00 0.00 91 1014.9
20260830131505 81 248 1.0 2.0 0.00 0.00 0.00 91 1014.8
20260830131403 81 243 1.0 2.0 0.00 0.00 0.00 91 1014.8
20260830131302 80 243 0.0 2.0 0.00 0.00 0.00 91 1014.9
20260830131203 80 243 0.0 2.0 0.00 0.00 0.00 91 1014.9
20260830131103 80 186 0.0 1.0 0.00 0.00 0.00 91 1014.9
20260830131004 80 186 0.0 1.0 0.00 0.00 0.00 91 1014.8
20260830130903 80 186 0.0 1.0 0.00 0.00 0.00 91 1014.8
20260830130804 80 185 0.0 0.0 0.00 0.00 0.00 91 1014.9
20260830130702 80 185 0.0 0.0 0.00 0.00 0.00 91 1014.9
20260830130602 80 185 0.0 0.0 0.00 0.00 0.00 91 1014.9
20260830130505 80 185 0.0 0.0 0.00 0.00 0.00 92 1014.9
20260830130403 80 185 0.0 0.0 0.00 0.00 0.00 92 1014.9
20260830130303 80 185 0.0 0.0 0.00 0.00 0.00 92 1014.9
20260830130203 80 185 0.0 0.0 0.00 0.00 0.00 92 1014.8
20260830130001 80 185 0.0 0.0 0.00 0.00 0.00 92 1014.8
20260830125904 80 185 0.0 0.0 0.00 0.00 0.00 92 1014.9
20260830125802 80 185 0.0 0.0 0.00 0.00 0.00 92 1014.8
20260830125703 80 185 0.0 0.0 0.00 0.00 0.00 92 1014.9
20260830125603 80 185 0.0 0.0 0.00 0.00 0.00 93 1014.9
20260830125503 80 185 0.0 0.0 0.00 0.00 0.00 93 1014.8
20260830125402 80 185 0.0 0.0 0.00 0.00 0.00 93 1014.8
20260830125306 80 185 0.0 0.0 0.00 0.00 0.00 93 1014.8
20260830125204 80 185 0.0 0.0 0.00 0.00 0.00 93 1014.9
20260830125102 80 185 0.0 2.0 0.00 0.00 0.00 93 1014.8
20260830125002 80 185 0.0 2.0 0.00 0.00 0.00 93 1014.8
20260830124902 80 185 0.0 2.0 0.00 0.00 0.00 93 1014.9
20260830124803 79 185 0.0 2.0 0.00 0.00 0.00 93 1014.7
20260830124702 79 185 0.0 2.0 0.00 0.00 0.00 93 1014.8
20260830124603 79 185 0.0 2.0 0.00 0.00 0.00 93 1014.8
20260830124503 79 179 0.0 2.0 0.00 0.00 0.00 93 1014.8
20260830124403 79 180 0.0 2.0 0.00 0.00 0.00 93 1014.8
20260830124303 79 180 0.0 2.0 0.00 0.00 0.00 93 1014.8
20260830124202 79 182 1.0 2.0 0.00 0.00 0.00 93 1014.8
20260830124103 79 182 1.0 2.0 0.00 0.00 0.00 93 1014.8
20260830124004 79 182 1.0 2.0 0.00 0.00 0.00 93 1014.7
20260830123902 79 182 1.0 2.0 0.00 0.00 0.00 93 1014.7
20260830123803 79 183 1.0 2.0 0.00 0.00 0.00 93 1014.8
20260830123702 79 186 1.0 2.0 0.00 0.00 0.00 93 1014.7
20260830123603 79 188 1.0 2.0 0.00 0.00 0.00 94 1014.7
20260830123503 79 189 0.0 1.0 0.00 0.00 0.00 94 1014.7
20260830123403 78 189 0.0 0.0 0.00 0.00 0.00 94 1014.7
20260830123304 78 189 0.0 0.0 0.00 0.00 0.00 94 1014.6
20260830123202 78 189 0.0 0.0 0.00 0.00 0.00 94 1014.6
20260830123103 78 189 0.0 0.0 0.00 0.00 0.00 94 1014.7
20260830123002 78 189 0.0 0.0 0.00 0.00 0.00 94 1014.6
20260830122902 78 189 0.0 0.0 0.00 0.00 0.00 94 1014.7
20260830122803 78 189 0.0 0.0 0.00 0.00 0.00 94 1014.6
20260830122703 78 189 0.0 0.0 0.00 0.00 0.00 94 1014.7
20260830122604 78 189 0.0 0.0 0.00 0.00 0.00 94 1014.6
20260830122502 78 189 0.0 0.0 0.00 0.00 0.00 94 1014.6
20260830122402 78 189 0.0 0.0 0.00 0.00 0.00 94 1014.6
20260830122306 78 189 0.0 0.0 0.00 0.00 0.00 94 1014.5
20260830122202 78 189 0.0 0.0 0.00 0.00 0.00 94 1014.5
20260830122103 78 171 0.0 0.0 0.00 0.00 0.00 94 1014.5
20260830122004 78 183 0.0 0.0 0.00 0.00 0.00 93 1014.5
20260830121902 78 188 0.0 0.0 0.00 0.00 0.00 93 1014.4
20260830121802 78 188 0.0 0.0 0.00 0.00 0.00 93 1014.5
20260830121703 78 189 0.0 0.0 0.00 0.00 0.00 93 1014.6
20260830121602 78 189 0.0 0.0 0.00 0.00 0.00 93 1014.5
20260830121503 78 189 0.0 0.0 0.00 0.00 0.00 93 1014.6
20260830121404 78 189 0.0 0.0 0.00 0.00 0.00 93 1014.6
20260830121302 78 189 0.0 0.0 0.00 0.00 0.00 94 1014.6
20260830121203 78 189 0.0 0.0 0.00 0.00 0.00 94 1014.5
20260830121103 78 189 0.0 0.0 0.00 0.00 0.00 93 1014.5
20260830121002 78 189 0.0 0.0 0.00 0.00 0.00 93 1014.5
20260830120902 78 189 0.0 0.0 0.00 0.00 0.00 93 1014.5
20260830120803 78 189 0.0 0.0 0.00 0.00 0.00 93 1014.5
20260830120703 78 189 0.0 0.0 0.00 0.00 0.00 93 1014.6
20260830120602 78 189 0.0 0.0 0.00 0.00 0.00 94 1014.6
20260830120502 78 189 0.0 0.0 0.00 0.00 0.00 93 1014.5
20260830120402 78 189 0.0 0.0 0.00 0.00 0.00 93 1014.5
20260830120302 78 189 0.0 0.0 0.00 0.00 0.00 93 1014.5
20260830120203 78 189 0.0 0.0 0.00 0.00 0.00 93 1014.5
20260830120003 78 189 0.0 0.0 0.00 0.00 0.00 93 1014.5
20260830115903 78 189 0.0 0.0 0.00 0.00 0.00 93 1014.6
20260830115802 78 189 0.0 0.0 0.00 0.00 0.00 93 1014.5
20260830115703 78 189 0.0 0.0 0.00 0.00 0.00 93 1014.5
20260830115602 78 189 0.0 0.0 0.00 0.00 0.00 93 1014.5
20260830115505 78 189 0.0 0.0 0.00 0.00 0.00 93 1014.4
20260830115404 78 189 0.0 0.0 0.00 0.00 0.00 93 1014.4
20260830115306 78 189 0.0 0.0 0.00 0.00 0.00 94 1014.4
20260830115203 78 189 0.0 0.0 0.00 0.00 0.00 93 1014.5
20260830115102 78 189 0.0 0.0 0.00 0.00 0.00 93 1014.5
20260830115004 78 189 0.0 0.0 0.00 0.00 0.00 93 1014.5
20260830114902 78 189 0.0 0.0 0.00 0.00 0.00 93 1014.5
20260830114804 78 189 0.0 0.0 0.00 0.00 0.00 93 1014.5
20260830114703 78 189 0.0 0.0 0.00 0.00 0.00 93 1014.4
20260830114603 78 189 0.0 0.0 0.00 0.00 0.00 93 1014.5
20260830114502 78 189 0.0 0.0 0.00 0.00 0.00 93 1014.4
20260830114403 78 189 0.0 0.0 0.00 0.00 0.00 93 1014.5
20260830114302 78 189 0.0 0.0 0.00 0.00 0.00 93 1014.5
20260830114203 78 189 0.0 0.0 0.00 0.00 0.00 93 1014.5
20260830114103 78 189 0.0 0.0 0.00 0.00 0.00 93 1014.4
20260830114004 78 189 0.0 0.0 0.00 0.00 0.00 93 1014.4
20260830113902 78 189 0.0 0.0 0.00 0.00 0.00 93 1014.4
20260830113802 78 189 0.0 0.0 0.00 0.00 0.00 93 1014.5
20260830113703 78 189 0.0 0.0 0.00 0.00 0.00 93 1014.5
20260830113602 78 189 0.0 0.0 0.00 0.00 0.00 93 1014.4
20260830113502 78 189 0.0 0.0 0.00 0.00 0.00 93 1014.4
20260830113402 78 189 0.0 0.0 0.00 0.00 0.00 93 1014.5
20260830113303 78 189 0.0 0.0 0.00 0.00 0.00 93 1014.5
20260830113201 78 189 0.0 0.0 0.00 0.00 0.00 93 1014.5
20260830113103 78 189 0.0 0.0 0.00 0.00 0.00 93 1014.5
20260830113004 78 189 0.0 0.0 0.00 0.00 0.00 93 1014.4
20260830112902 78 189 0.0 0.0 0.00 0.00 0.00 93 1014.5
20260830112803 78 189 0.0 0.0 0.00 0.00 0.00 93 1014.5
20260830112702 78 189 0.0 0.0 0.00 0.00 0.00 93 1014.5
20260830112603 78 189 0.0 0.0 0.00 0.00 0.00 93 1014.5
20260830112502 78 189 0.0 0.0 0.00 0.00 0.00 93 1014.5
20260830112402 78 189 0.0 0.0 0.00 0.00 0.00 93 1014.5
20260830112306 78 189 0.0 0.0 0.00 0.00 0.00 93 1014.4
20260830112202 78 189 0.0 0.0 0.00 0.00 0.00 93 1014.4
20260830112102 78 189 0.0 0.0 0.00 0.00 0.00 93 1014.5
20260830112001 78 189 0.0 0.0 0.00 0.00 0.00 93 1014.5
20260830111903 78 189 0.0 0.0 0.00 0.00 0.00 93 1014.4
20260830111802 78 189 0.0 0.0 0.00 0.00 0.00 93 1014.4
20260830111702 78 189 0.0 0.0 0.00 0.00 0.00 93 1014.4
20260830111603 78 189 0.0 0.0 0.00 0.00 0.00 93 1014.3
20260830111503 78 189 0.0 0.0 0.00 0.00 0.00 93 1014.4
20260830111403 78 189 0.0 0.0 0.00 0.00 0.00 93 1014.4
20260830111303 78 189 0.0 0.0 0.00 0.00 0.00 93 1014.3
20260830111202 78 189 0.0 0.0 0.00 0.00 0.00 93 1014.3
20260830111102 78 189 0.0 0.0 0.00 0.00 0.00 93 1014.3
20260830111002 78 189 0.0 0.0 0.00 0.00 0.00 93 1014.3
20260830110903 79 189 0.0 0.0 0.00 0.00 0.00 93 1014.3
20260830110802 79 189 0.0 0.0 0.00 0.00 0.00 93 1014.3
20260830110702 79 189 0.0 0.0 0.00 0.00 0.00 93 1014.3
20260830110603 79 189 0.0 0.0 0.00 0.00 0.00 93 1014.3
20260830110504 79 189 0.0 0.0 0.00 0.00 0.00 93 1014.4
20260830110402 78 189 0.0 0.0 0.00 0.00 0.00 93 1014.3
20260830110302 78 189 0.0 0.0 0.00 0.00 0.00 93 1014.3
20260830110203 78 189 0.0 0.0 0.00 0.00 0.00 93 1014.3
20260830110103 78 189 0.0 0.0 0.00 0.00 0.00 93 1014.3
20260830110002 78 189 0.0 0.0 0.00 0.00 0.00 93 1014.3
20260830105904 78 189 0.0 0.0 0.00 0.00 0.00 93 1014.3
20260830105803 78 189 0.0 0.0 0.00 0.00 0.00 93 1014.2
20260830105703 78 189 0.0 0.0 0.00 0.00 0.00 93 1014.2
20260830105602 78 189 0.0 0.0 0.00 0.00 0.00 93 1014.2
20260830105459 78 189 0.0 0.0 0.00 0.00 0.00 92 1014.2
20260830105357 79 190 0.0 0.0 0.00 0.00 0.00 93 1014.2
20260830105255 79 189 0.0 0.0 0.00 0.00 0.00 93 1014.2
20260830105154 79 190 0.0 0.0 0.00 0.00 0.00 93 1014.2
20260830105054 79 190 0.0 0.0 0.00 0.00 0.00 93 1014.2
20260830104953 79 190 0.0 0.0 0.00 0.00 0.00 93 1014.2
20260830104853 79 190 0.0 0.0 0.00 0.00 0.00 93 1014.2
20260830104752 79 190 0.0 0.0 0.00 0.00 0.00 93 1014.1
20260830104652 79 190 0.0 0.0 0.00 0.00 0.00 93 1014.2
20260830104552 79 190 0.0 0.0 0.00 0.00 0.00 93 1014.1
20260830104452 79 190 0.0 0.0 0.00 0.00 0.00 93 1014.1
20260830104352 79 190 0.0 0.0 0.00 0.00 0.00 93 1014.1
20260830104253 79 190 0.0 0.0 0.00 0.00 0.00 93 1014.1
20260830104154 79 190 0.0 0.0 0.00 0.00 0.00 93 1014.2
20260830104053 79 190 0.0 0.0 0.00 0.00 0.00 93 1014.1
20260830103953 79 190 0.0 0.0 0.00 0.00 0.00 92 1014.1
20260830103852 79 190 0.0 0.0 0.00 0.00 0.00 92 1014.1
20260830103753 79 190 0.0 0.0 0.00 0.00 0.00 93 1014.1
20260830103652 79 190 0.0 0.0 0.00 0.00 0.00 93 1014.1
20260830103552 79 190 0.0 0.0 0.00 0.00 0.00 92 1014.1
20260830103454 79 190 0.0 0.0 0.00 0.00 0.00 92 1014.0
20260830103354 79 190 0.0 0.0 0.00 0.00 0.00 92 1014.1
20260830103254 79 190 0.0 0.0 0.00 0.00 0.00 92 1014.0
20260830103153 79 190 0.0 0.0 0.00 0.00 0.00 92 1014.0
20260830103052 79 190 0.0 0.0 0.00 0.00 0.00 92 1014.1
20260830102952 79 190 0.0 0.0 0.00 0.00 0.00 92 1014.0
20260830102853 79 190 0.0 0.0 0.00 0.00 0.00 92 1014.0
20260830102753 79 190 0.0 0.0 0.00 0.00 0.00 92 1014.1
20260830102653 79 190 0.0 0.0 0.00 0.00 0.00 92 1014.1
20260830102552 79 190 0.0 0.0 0.00 0.00 0.00 92 1014.1
20260830102454 79 190 0.0 0.0 0.00 0.00 0.00 92 1014.1
20260830102353 79 190 0.0 0.0 0.00 0.00 0.00 92 1014.1
20260830102252 79 190 0.0 0.0 0.00 0.00 0.00 92 1014.0
20260830102153 79 190 0.0 0.0 0.00 0.00 0.00 92 1014.0
20260830102052 79 190 0.0 0.0 0.00 0.00 0.00 92 1014.1
20260830101952 79 190 0.0 0.0 0.00 0.00 0.00 92 1014.0
20260830101852 79 190 0.0 0.0 0.00 0.00 0.00 92 1014.0
20260830101753 79 190 0.0 0.0 0.00 0.00 0.00 92 1014.0
20260830101652 79 190 0.0 0.0 0.00 0.00 0.00 92 1014.1
20260830101553 79 190 0.0 0.0 0.00 0.00 0.00 92 1014.1
20260830101454 79 190 0.0 1.0 0.00 0.00 0.00 92 1014.0
20260830101354 79 190 0.0 2.0 0.00 0.00 0.00 92 1014.0
20260830101252 79 190 0.0 2.0 0.00 0.00 0.00 92 1014.0
20260830101153 79 190 0.0 2.0 0.00 0.00 0.00 92 1013.9
20260830101053 79 190 0.0 2.0 0.00 0.00 0.00 92 1014.0
20260830100951 79 190 0.0 2.0 0.00 0.00 0.00 92 1013.9
20260830100851 79 190 0.0 2.0 0.00 0.00 0.00 92 1013.9
20260830100751 79 190 0.0 2.0 0.00 0.00 0.00 92 1013.8
20260830100653 79 190 0.0 2.0 0.00 0.00 0.00 92 1013.9
20260830100551 79 192 1.0 2.0 0.00 0.00 0.00 92 1013.9
20260830100451 79 192 1.0 2.0 0.00 0.00 0.00 92 1013.8
20260830100353 79 193 0.0 2.0 0.00 0.00 0.00 92 1013.8
20260830100252 79 193 0.0 2.0 0.00 0.00 0.00 92 1013.9
20260830100152 79 195 0.0 2.0 0.00 0.00 0.00 92 1013.9
20260830100052 79 195 0.0 2.0 0.00 0.00 0.00 92 1013.8
20260830095952 79 195 0.0 2.0 0.00 0.00 0.00 92 1013.9
20260830095851 79 195 1.0 2.0 0.00 0.00 0.00 92 1013.8
20260830095752 79 195 0.0 2.0 0.00 0.00 0.00 92 1013.8
20260830095653 79 195 0.0 1.0 0.00 0.00 0.00 92 1013.8
20260830095551 79 195 0.0 0.0 0.00 0.00 0.00 92 1013.8
20260830095451 79 195 0.0 0.0 0.00 0.00 0.00 92 1013.8
20260830095352 79 195 0.0 0.0 0.00 0.00 0.00 92 1013.8
20260830095252 79 195 0.0 0.0 0.00 0.00 0.00 92 1013.8
20260830095151 79 195 0.0 0.0 0.00 0.00 0.00 92 1013.8
20260830095052 79 195 0.0 0.0 0.00 0.00 0.00 92 1013.8
20260830094953 79 195 0.0 0.0 0.00 0.00 0.00 92 1013.9
20260830094853 79 195 0.0 0.0 0.00 0.00 0.00 92 1013.8
20260830094752 79 195 0.0 0.0 0.00 0.00 0.00 92 1013.8
20260830094653 79 195 0.0 0.0 0.00 0.00 0.00 92 1013.8
20260830094552 79 195 0.0 0.0 0.00 0.00 0.00 92 1013.8
20260830094452 79 195 0.0 0.0 0.00 0.00 0.00 92 1013.8
20260830094352 79 195 0.0 0.0 0.00 0.00 0.00 91 1013.8
20260830094253 79 195 0.0 0.0 0.00 0.00 0.00 91 1013.8
20260830094151 79 195 0.0 0.0 0.00 0.00 0.00 91 1013.8
20260830094051 79 195 0.0 0.0 0.00 0.00 0.00 91 1013.8
20260830093953 79 195 0.0 0.0 0.00 0.00 0.00 91 1013.8
20260830093852 79 195 0.0 0.0 0.00 0.00 0.00 91 1013.8
20260830093751 79 195 0.0 0.0 0.00 0.00 0.00 91 1013.9
20260830093650 79 195 0.0 0.0 0.00 0.00 0.00 91 1013.9
20260830093554 79 195 0.0 0.0 0.00 0.00 0.00 91 1013.9
20260830093453 79 195 0.0 0.0 0.00 0.00 0.00 91 1013.9
20260830093351 79 195 0.0 0.0 0.00 0.00 0.00 91 1013.9
20260830093252 79 195 0.0 0.0 0.00 0.00 0.00 91 1013.9
20260830093151 79 195 0.0 0.0 0.00 0.00 0.00 91 1013.8
20260830093050 79 195 0.0 0.0 0.00 0.00 0.00 91 1013.8
20260830092953 79 195 0.0 0.0 0.00 0.00 0.00 91 1013.9
20260830092853 79 195 0.0 0.0 0.00 0.00 0.00 91 1013.8
20260830092751 79 195 0.0 0.0 0.00 0.00 0.00 91 1013.8
20260830092651 79 195 0.0 0.0 0.00 0.00 0.00 91 1013.8
20260830092553 79 195 0.0 0.0 0.00 0.00 0.00 91 1013.8
20260830092451 79 195 0.0 0.0 0.00 0.00 0.00 91 1013.8
20260830092350 79 195 0.0 0.0 0.00 0.00 0.00 91 1013.8
20260830092250 79 195 0.0 0.0 0.00 0.00 0.00 90 1013.8
20260830092152 79 195 0.0 0.0 0.00 0.00 0.00 91 1013.8
20260830092051 79 195 0.0 2.0 0.00 0.00 0.00 90 1013.8
20260830091952 80 195 0.0 2.0 0.00 0.00 0.00 90 1013.8
20260830091852 80 195 0.0 2.0 0.00 0.00 0.00 90 1013.8
20260830091751 80 195 0.0 2.0 0.00 0.00 0.00 90 1013.8
20260830091650 80 195 0.0 2.0 0.00 0.00 0.00 90 1013.8
20260830091550 80 195 0.0 2.0 0.00 0.00 0.00 90 1013.8
20260830091451 80 195 0.0 2.0 0.00 0.00 0.00 90 1013.8
20260830091350 80 195 0.0 2.0 0.00 0.00 0.00 91 1013.7
20260830091252 80 195 0.0 2.0 0.00 0.00 0.00 91 1013.7
20260830091152 79 195 1.0 2.0 0.00 0.00 0.00 91 1013.7
20260830091050 79 195 0.0 2.0 0.00 0.00 0.00 91 1013.7
20260830090950 79 195 0.0 1.0 0.00 0.00 0.00 91 1013.8
20260830090850 79 195 0.0 1.0 0.00 0.00 0.00 91 1013.8
20260830090750 79 195 0.0 1.0 0.00 0.00 0.00 91 1013.8
20260830090651 79 195 0.0 1.0 0.00 0.00 0.00 90 1013.7
20260830090550 79 195 0.0 1.0 0.00 0.00 0.00 91 1013.8
20260830090451 79 195 0.0 0.0 0.00 0.00 0.00 91 1013.8
20260830090351 79 195 0.0 0.0 0.00 0.00 0.00 90 1013.8
20260830090251 79 195 0.0 0.0 0.00 0.00 0.00 91 1013.8
20260830090153 79 195 0.0 0.0 0.00 0.00 0.00 91 1013.8
20260830090051 79 195 0.0 0.0 0.00 0.00 0.00 91 1013.8
20260830085951 79 195 0.0 0.0 0.00 0.00 0.00 90 1013.8
20260830085850 79 195 0.0 0.0 0.00 0.00 0.00 90 1013.9
20260830085752 79 195 0.0 0.0 0.00 0.00 0.00 90 1013.9
20260830085650 79 195 0.0 0.0 0.00 0.00 0.00 90 1013.9
20260830085551 79 195 0.0 0.0 0.00 0.00 0.00 90 1013.9
20260830085450 79 195 0.0 0.0 0.00 0.00 0.00 90 1013.9
20260830085351 79 195 0.0 0.0 0.00 0.00 0.00 90 1013.9
20260830085251 80 195 0.0 0.0 0.00 0.00 0.00 90 1013.9
20260830085150 79 195 0.0 0.0 0.00 0.00 0.00 90 1013.9
20260830085052 80 185 0.0 0.0 0.00 0.00 0.00 90 1014.0
20260830084951 80 186 0.0 0.0 0.00 0.00 0.00 90 1013.9
20260830084850 80 188 0.0 0.0 0.00 0.00 0.00 90 1013.9
20260830084751 80 189 0.0 0.0 0.00 0.00 0.00 90 1013.9
20260830084649 80 189 0.0 0.0 0.00 0.00 0.00 90 1013.9
20260830084548 80 190 0.0 0.0 0.00 0.00 0.00 90 1013.8
20260830084447 80 190 0.0 0.0 0.00 0.00 0.00 89 1013.9
20260830084346 80 190 0.0 0.0 0.00 0.00 0.00 89 1013.9
20260830084243 80 192 0.0 0.0 0.00 0.00 0.00 89 1013.9
20260830084142 80 192 0.0 0.0 0.00 0.00 0.00 89 1013.9
20260830084040 80 192 0.0 0.0 0.00 0.00 0.00 89 1013.8
20260830083939 80 192 0.0 0.0 0.00 0.00 0.00 89 1013.9
20260830083834 80 192 0.0 0.0 0.00 0.00 0.00 89 1013.9
20260830083732 80 192 0.0 0.0 0.00 0.00 0.00 89 1013.9
20260830083630 80 193 0.0 0.0 0.00 0.00 0.00 89 1013.9
20260830083531 80 193 0.0 0.0 0.00 0.00 0.00 89 1013.8
20260830083432 80 193 0.0 0.0 0.00 0.00 0.00 89 1013.9
20260830083332 80 193 0.0 0.0 0.00 0.00 0.00 89 1013.9
20260830083231 80 193 0.0 0.0 0.00 0.00 0.00 89 1014.0
20260830083133 80 193 0.0 0.0 0.00 0.00 0.00 89 1013.9
20260830083032 80 195 0.0 0.0 0.00 0.00 0.00 89 1013.9
20260830082930 80 195 0.0 0.0 0.00 0.00 0.00 88 1013.9
20260830082832 80 195 0.0 0.0 0.00 0.00 0.00 88 1013.9
20260830082732 80 195 0.0 0.0 0.00 0.00 0.00 88 1013.9
20260830082632 80 195 0.0 0.0 0.00 0.00 0.00 88 1013.9
20260830082531 80 171 0.0 0.0 0.00 0.00 0.00 88 1014.0
20260830082432 80 185 0.0 0.0 0.00 0.00 0.00 88 1013.9
20260830082331 80 189 0.0 0.0 0.00 0.00 0.00 88 1014.0
20260830082232 80 190 0.0 2.0 0.00 0.00 0.00 88 1014.0
20260830082129 80 192 0.0 2.0 0.00 0.00 0.00 88 1014.0
20260830082029 80 192 0.0 2.0 0.00 0.00 0.00 88 1014.0
20260830081927 80 193 0.0 2.0 0.00 0.00 0.00 88 1013.9
20260830081810 80 193 0.0 2.0 0.00 0.00 0.00 88 1014.0
20260830081707 80 193 0.0 2.0 0.00 0.00 0.00 88 1013.9
20260830081607 80 193 0.0 3.0 0.00 0.00 0.00 88 1014.0
20260830081504 80 193 0.0 3.0 0.00 0.00 0.00 88 1013.9
20260830081404 80 195 0.0 3.0 0.00 0.00 0.00 88 1014.0
20260830081303 80 195 0.0 3.0 0.00 0.00 0.00 88 1014.0
20260830081202 80 195 0.0 3.0 0.00 0.00 0.00 88 1014.0
20260830081103 81 186 1.0 3.0 0.00 0.00 0.00 88 1014.0
20260830081004 81 186 1.0 3.0 0.00 0.00 0.00 88 1014.0
20260830080904 81 186 1.0 3.0 0.00 0.00 0.00 88 1014.1
20260830080804 81 186 1.0 3.0 0.00 0.00 0.00 88 1014.0
20260830080703 81 186 1.0 3.0 0.00 0.00 0.00 88 1014.0
20260830080603 81 179 1.0 2.0 0.00 0.00 0.00 88 1014.1
20260830080503 81 175 0.0 2.0 0.00 0.00 0.00 88 1014.1
20260830080403 81 175 0.0 2.0 0.00 0.00 0.00 88 1014.1
20260830080302 81 173 0.0 2.0 0.00 0.00 0.00 88 1014.0
20260830080202 81 175 0.0 3.0 0.00 0.00 0.00 88 1014.0
20260830080003 81 175 1.0 3.0 0.00 0.00 0.00 88 1013.9
20260830075903 81 175 1.0 3.0 0.00 0.00 0.00 87 1013.9
20260830075804 81 203 2.0 3.0 0.00 0.00 0.00 87 1014.0
20260830075704 81 203 2.0 3.0 0.00 0.00 0.00 87 1013.9
20260830075603 81 203 2.0 3.0 0.00 0.00 0.00 87 1013.9
20260830075503 81 203 2.0 3.0 0.00 0.00 0.00 87 1014.0
20260830075402 81 203 2.0 3.0 0.00 0.00 0.00 87 1013.9
20260830075306 81 203 2.0 3.0 0.00 0.00 0.00 87 1014.0
20260830075202 81 203 2.0 4.0 0.00 0.00 0.00 87 1013.9
20260830075103 81 203 2.0 4.0 0.00 0.00 0.00 87 1013.9
20260830075003 81 203 2.0 4.0 0.00 0.00 0.00 87 1013.9
20260830074903 81 203 1.0 4.0 0.00 0.00 0.00 87 1014.0
20260830074804 81 196 1.0 4.0 0.00 0.00 0.00 87 1013.8
20260830074702 81 186 1.0 4.0 0.00 0.00 0.00 87 1013.9
20260830074602 81 183 2.0 4.0 0.00 0.00 0.00 87 1013.9
20260830074504 81 185 2.0 4.0 0.00 0.00 0.00 87 1013.9
20260830074402 81 172 2.0 4.0 0.00 0.00 0.00 87 1014.0
20260830074302 81 175 2.0 4.0 0.00 0.00 0.00 87 1013.9
20260830074202 81 183 2.0 4.0 0.00 0.00 0.00 87 1013.9
20260830074103 81 180 2.0 4.0 0.00 0.00 0.00 87 1014.0
20260830074005 81 168 2.0 4.0 0.00 0.00 0.00 87 1013.9
20260830073902 81 168 2.0 4.0 0.00 0.00 0.00 87 1014.0
20260830073803 81 161 1.0 4.0 0.00 0.00 0.00 87 1014.0
20260830073703 81 161 1.0 4.0 0.00 0.00 0.00 87 1014.0
20260830073603 81 161 1.0 4.0 0.00 0.00 0.00 87 1014.0
20260830073502 81 161 1.0 4.0 0.00 0.00 0.00 87 1014.1
20260830073404 81 182 2.0 4.0 0.00 0.00 0.00 87 1014.0
20260830073303 81 178 2.0 4.0 0.00 0.00 0.00 86 1014.1
20260830073202 81 180 2.0 4.0 0.00 0.00 0.00 86 1014.1
20260830073104 81 182 2.0 4.0 0.00 0.00 0.00 86 1014.0
20260830073004 81 197 2.0 4.0 0.00 0.00 0.00 86 1014.1
20260830072901 81 171 1.0 4.0 0.00 0.00 0.00 86 1014.2
20260830072802 81 157 2.0 4.0 0.00 0.00 0.00 86 1014.1
20260830072703 81 154 2.0 4.0 0.00 0.00 0.00 86 1014.2
20260830072602 81 217 2.0 4.0 0.00 0.00 0.00 86 1014.2
20260830072502 81 178 2.0 4.0 0.00 0.00 0.00 86 1014.2
20260830072403 81 210 2.0 4.0 0.00 0.00 0.00 86 1014.2
20260830072306 81 190 1.0 4.0 0.00 0.00 0.00 86 1014.2
20260830072202 81 176 1.0 4.0 0.00 0.00 0.00 86 1014.2
20260830072102 81 176 2.0 4.0 0.00 0.00 0.00 86 1014.2
20260830072004 81 180 3.0 4.0 0.00 0.00 0.00 86 1014.2
20260830071903 81 182 2.0 3.0 0.00 0.00 0.00 86 1014.2
20260830071802 81 179 1.0 3.0 0.00 0.00 0.00 86 1014.2
20260830071703 81 179 1.0 3.0 0.00 0.00 0.00 86 1014.2
20260830071602 81 179 2.0 3.0 0.00 0.00 0.00 86 1014.2
20260830071502 81 178 2.0 3.0 0.00 0.00 0.00 86 1014.2
20260830071402 81 178 1.0 3.0 0.00 0.00 0.00 86 1014.2
20260830071303 81 157 0.0 3.0 0.00 0.00 0.00 86 1014.2
20260830071203 81 158 1.0 3.0 0.00 0.00 0.00 86 1014.2
20260830071103 81 159 1.0 3.0 0.00 0.00 0.00 86 1014.2
20260830071005 81 202 1.0 3.0 0.00 0.00 0.00 85 1014.3
20260830070902 81 203 1.0 3.0 0.00 0.00 0.00 85 1014.3
20260830070802 81 203 2.0 3.0 0.00 0.00 0.00 86 1014.2
20260830070704 81 203 1.0 4.0 0.00 0.00 0.00 85 1014.2
20260830070602 81 202 1.0 4.0 0.00 0.00 0.00 85 1014.2
20260830070505 81 200 1.0 5.0 0.00 0.00 0.00 85 1014.2
20260830070402 81 182 1.0 5.0 0.00 0.00 0.00 85 1014.1
20260830070303 82 182 1.0 5.0 0.00 0.00 0.00 85 1014.1
20260830070203 82 182 1.0 5.0 0.00 0.00 0.00 85 1014.1
20260830070104 82 182 1.0 5.0 0.00 0.00 0.00 85 1014.1
20260830070002 82 180 1.0 5.0 0.00 0.00 0.00 85 1014.0
20260830065902 82 180 1.0 5.0 0.00 0.00 0.00 85 1014.1
20260830065802 82 180 1.0 5.0 0.00 0.00 0.00 85 1014.1
20260830065702 82 176 2.0 5.0 0.00 0.00 0.00 85 1014.1
20260830065603 82 176 2.0 5.0 0.00 0.00 0.00 85 1014.1
20260830065502 82 197 2.0 4.0 0.00 0.00 0.00 85 1014.1
20260830065402 82 197 2.0 4.0 0.00 0.00 0.00 85 1014.0
20260830065306 82 197 2.0 4.0 0.00 0.00 0.00 85 1014.1
20260830065203 82 197 2.0 4.0 0.00 0.00 0.00 85 1014.1
20260830065102 82 204 2.0 4.0 0.00 0.00 0.00 85 1014.0
20260830065002 82 171 2.0 3.0 0.00 0.00 0.00 85 1014.0
20260830064902 82 178 2.0 3.0 0.00 0.00 0.00 85 1014.1
20260830064802 82 182 1.0 3.0 0.00 0.00 0.00 85 1014.0
20260830064702 82 183 0.0 2.0 0.00 0.00 0.00 85 1014.0
20260830064604 82 196 1.0 3.0 0.00 0.00 0.00 85 1014.0
20260830064503 82 196 1.0 3.0 0.00 0.00 0.00 85 1014.0
20260830064401 82 196 1.0 3.0 0.00 0.00 0.00 85 1014.0
20260830064303 82 196 1.0 3.0 0.00 0.00 0.00 85 1014.0
20260830064203 82 200 1.0 3.0 0.00 0.00 0.00 85 1014.1
20260830064102 82 178 0.0 4.0 0.00 0.00 0.00 84 1014.1
20260830064003 82 178 0.0 4.0 0.00 0.00 0.00 84 1014.1
20260830063904 82 178 0.0 4.0 0.00 0.00 0.00 84 1014.0
20260830063802 82 178 1.0 4.0 0.00 0.00 0.00 84 1014.1
20260830063702 82 178 1.0 4.0 0.00 0.00 0.00 84 1014.1
20260830063603 82 180 1.0 4.0 0.00 0.00 0.00 84 1014.1
20260830063502 82 204 1.0 4.0 0.00 0.00 0.00 84 1014.1
20260830063402 82 204 1.0 4.0 0.00 0.00 0.00 84 1014.1
20260830063305 82 204 2.0 4.0 0.00 0.00 0.00 84 1014.0
20260830063203 82 204 2.0 4.0 0.00 0.00 0.00 84 1014.1
20260830063102 82 196 1.0 4.0 0.00 0.00 0.00 84 1014.2
20260830063003 82 168 1.0 4.0 0.00 0.00 0.00 84 1014.2
20260830062904 82 168 2.0 4.0 0.00 0.00 0.00 84 1014.1
20260830062802 82 193 2.0 4.0 0.00 0.00 0.00 84 1014.0
20260830062703 82 195 1.0 4.0 0.00 0.00 0.00 84 1014.1
20260830062603 82 195 1.0 4.0 0.00 0.00 0.00 84 1014.1
20260830062504 82 197 2.0 4.0 0.00 0.00 0.00 84 1014.1
20260830062404 82 188 2.0 4.0 0.00 0.00 0.00 84 1014.1
20260830062305 82 213 2.0 4.0 0.00 0.00 0.00 84 1014.1
20260830062202 82 142 2.0 4.0 0.00 0.00 0.00 83 1014.1
20260830062102 82 165 1.0 4.0 0.00 0.00 0.00 83 1014.1
20260830062004 82 165 1.0 4.0 0.00 0.00 0.00 83 1014.1
20260830061903 82 158 1.0 4.0 0.00 0.00 0.00 83 1014.2
20260830061803 82 158 2.0 4.0 0.00 0.00 0.00 83 1014.1
20260830061702 82 144 3.0 4.0 0.00 0.00 0.00 83 1014.1
20260830061602 82 133 2.0 4.0 0.00 0.00 0.00 83 1014.2
20260830061504 82 182 1.0 4.0 0.00 0.00 0.00 83 1014.2
20260830061403 82 183 1.0 4.0 0.00 0.00 0.00 83 1014.2
20260830061302 82 196 2.0 4.0 0.00 0.00 0.00 83 1014.2
20260830061203 82 196 2.0 4.0 0.00 0.00 0.00 83 1014.2
20260830061103 82 185 2.0 4.0 0.00 0.00 0.00 83 1014.2
20260830061005 82 172 3.0 4.0 0.00 0.00 0.00 83 1014.2
20260830060903 82 195 2.0 4.0 0.00 0.00 0.00 83 1014.1
20260830060803 82 176 2.0 4.0 0.00 0.00 0.00 83 1014.1
20260830060702 82 186 2.0 4.0 0.00 0.00 0.00 83 1014.1
20260830060602 82 182 1.0 4.0 0.00 0.00 0.00 83 1014.2
20260830060504 82 178 2.0 4.0 0.00 0.00 0.00 83 1014.1
20260830060403 82 178 2.0 4.0 0.00 0.00 0.00 82 1014.1
20260830060302 82 192 2.0 4.0 0.00 0.00 0.00 83 1014.1
20260830060203 82 186 2.0 5.0 0.00 0.00 0.00 82 1014.2
20260830060001 82 186 1.0 5.0 0.00 0.00 0.00 82 1014.1
20260830055902 82 193 1.0 6.0 0.00 0.00 0.00 82 1014.1
20260830055803 82 193 1.0 6.0 0.00 0.00 0.00 82 1014.1
20260830055702 82 195 2.0 6.0 0.00 0.00 0.00 82 1014.1
20260830055602 82 197 2.0 6.0 0.00 0.00 0.00 82 1014.1
20260830055504 82 200 3.0 6.0 0.00 0.00 0.00 82 1014.0
20260830055402 82 226 2.0 6.0 0.00 0.00 0.00 82 1014.1
20260830055306 82 226 2.0 6.0 0.00 0.00 0.00 82 1014.0
20260830055203 83 227 3.0 6.0 0.00 0.00 0.00 82 1014.0
20260830055103 83 227 4.0 6.0 0.00 0.00 0.00 82 1014.1
20260830055002 83 214 4.0 6.0 0.00 0.00 0.00 82 1014.0
20260830054859 83 233 3.0 6.0 0.00 0.00 0.00 82 1014.0
20260830054758 83 209 2.0 6.0 0.00 0.00 0.00 82 1014.1
20260830054655 83 200 3.0 6.0 0.00 0.00 0.00 82 1014.1
20260830054554 83 214 2.0 6.0 0.00 0.00 0.00 81 1014.1
20260830054453 83 223 3.0 6.0 0.00 0.00 0.00 81 1014.1
20260830054353 83 219 3.0 6.0 0.00 0.00 0.00 81 1014.2
20260830054250 83 219 3.0 7.0 0.00 0.00 0.00 81 1014.1
20260830054146 83 224 3.0 7.0 0.00 0.00 0.00 81 1014.1
20260830054045 83 221 4.0 7.0 0.00 0.00 0.00 81 1014.0
20260830053944 83 224 4.0 7.0 0.00 0.00 0.00 81 1014.1
20260830053846 83 226 4.0 7.0 0.00 0.00 0.00 81 1014.1
20260830053746 83 221 3.0 7.0 0.00 0.00 0.00 81 1014.1
20260830053647 83 243 3.0 7.0 0.00 0.00 0.00 81 1014.1
20260830053545 83 244 4.0 7.0 0.00 0.00 0.00 81 1014.0
20260830053446 83 241 5.0 7.0 0.00 0.00 0.00 81 1014.0
20260830053345 83 233 4.0 7.0 0.00 0.00 0.00 81 1014.0
20260830053247 83 235 4.0 6.0 0.00 0.00 0.00 81 1014.0
20260830053146 83 248 5.0 6.0 0.00 0.00 0.00 81 1014.0
20260830053045 83 255 4.0 6.0 0.00 0.00 0.00 81 1013.9
20260830052948 83 272 4.0 6.0 0.00 0.00 0.00 81 1014.0
20260830052845 83 245 4.0 6.0 0.00 0.00 0.00 81 1014.0
20260830052747 83 243 4.0 6.0 0.00 0.00 0.00 81 1014.1
20260830052647 83 228 4.0 6.0 0.00 0.00 0.00 81 1014.1
20260830052546 83 233 4.0 5.0 0.00 0.00 0.00 81 1014.1
20260830052446 83 231 4.0 5.0 0.00 0.00 0.00 81 1014.1
20260830052345 83 228 3.0 5.0 0.00 0.00 0.00 81 1014.0
20260830052248 83 234 4.0 5.0 0.00 0.00 0.00 81 1014.1
20260830052146 83 234 3.0 5.0 0.00 0.00 0.00 81 1014.0
20260830052047 83 245 2.0 5.0 0.00 0.00 0.00 81 1014.0
20260830051947 83 217 2.0 5.0 0.00 0.00 0.00 81 1014.0
20260830051845 83 217 2.0 5.0 0.00 0.00 0.00 81 1014.0
20260830051744 83 217 1.0 5.0 0.00 0.00 0.00 81 1014.0
20260830051642 83 217 2.0 5.0 0.00 0.00 0.00 81 1014.0
20260830051541 83 217 2.0 5.0 0.00 0.00 0.00 81 1014.0
20260830051439 83 216 2.0 5.0 0.00 0.00 0.00 81 1014.0
20260830051334 83 199 1.0 5.0 0.00 0.00 0.00 81 1014.0
20260830051232 83 213 1.0 5.0 0.00 0.00 0.00 81 1014.0
20260830051131 83 213 2.0 5.0 0.00 0.00 0.00 81 1014.0
20260830051031 83 197 2.0 5.0 0.00 0.00 0.00 81 1014.0
20260830050932 83 209 2.0 5.0 0.00 0.00 0.00 81 1014.0
20260830050833 83 158 3.0 5.0 0.00 0.00 0.00 81 1014.0
20260830050731 83 161 3.0 5.0 0.00 0.00 0.00 81 1014.0
20260830050631 83 154 2.0 6.0 0.00 0.00 0.00 81 1014.0
20260830050531 83 172 2.0 6.0 0.00 0.00 0.00 82 1014.0
20260830050431 83 169 2.0 7.0 0.00 0.00 0.00 82 1014.0
20260830050332 83 189 3.0 7.0 0.00 0.00 0.00 82 1014.0
20260830050231 83 179 3.0 7.0 0.00 0.00 0.00 82 1014.1
20260830050132 83 175 2.0 7.0 0.00 0.00 0.00 82 1014.0
20260830050033 83 207 2.0 7.0 0.00 0.00 0.00 82 1014.0
20260830045932 83 197 2.0 7.0 0.00 0.00 0.00 82 1014.0
20260830045831 83 217 3.0 7.0 0.00 0.00 0.00 82 1014.0
20260830045732 83 189 4.0 7.0 0.00 0.00 0.00 82 1014.0
20260830045632 83 183 5.0 7.0 0.00 0.00 0.00 82 1014.0
20260830045531 83 186 4.0 7.0 0.00 0.00 0.00 82 1014.0
20260830045430 83 169 3.0 5.0 0.00 0.00 0.00 82 1014.0
20260830045330 83 178 2.0 4.0 0.00 0.00 0.00 82 1014.0
20260830045232 83 175 2.0 5.0 0.00 0.00 0.00 82 1014.0
20260830045131 83 186 2.0 5.0 0.00 0.00 0.00 82 1014.0
20260830045031 83 175 2.0 5.0 0.00 0.00 0.00 82 1014.0
20260830044932 83 196 1.0 5.0 0.00 0.00 0.00 83 1014.0
20260830044831 83 165 1.0 5.0 0.00 0.00 0.00 83 1014.0
20260830044730 83 165 2.0 5.0 0.00 0.00 0.00 83 1014.0
20260830044631 83 197 2.0 5.0 0.00 0.00 0.00 83 1014.0
20260830044531 83 200 2.0 5.0 0.00 0.00 0.00 83 1014.0
20260830044431 83 199 3.0 5.0 0.00 0.00 0.00 83 1014.0
20260830044331 83 202 3.0 5.0 0.00 0.00 0.00 83 1014.0
20260830044232 83 199 3.0 5.0 0.00 0.00 0.00 83 1014.0
20260830044132 83 199 3.0 5.0 0.00 0.00 0.00 83 1014.1
20260830044032 83 220 3.0 4.0 0.00 0.00 0.00 84 1014.1
20260830043932 83 209 2.0 4.0 0.00 0.00 0.00 84 1014.1
20260830043833 83 197 0.0 4.0 0.00 0.00 0.00 84 1014.1
20260830043730 83 168 0.0 4.0 0.00 0.00 0.00 83 1014.0
20260830043631 83 168 1.0 4.0 0.00 0.00 0.00 83 1014.1
20260830043532 83 168 1.0 4.0 0.00 0.00 0.00 83 1014.0
20260830043431 83 168 1.0 4.0 0.00 0.00 0.00 83 1014.1
20260830043331 83 169 1.0 5.0 0.00 0.00 0.00 83 1014.1
20260830043232 83 169 2.0 5.0 0.00 0.00 0.00 83 1014.0
20260830043131 83 172 2.0 5.0 0.00 0.00 0.00 83 1014.1
20260830043030 83 178 2.0 5.0 0.00 0.00 0.00 83 1014.1
20260830042930 83 165 2.0 5.0 0.00 0.00 0.00 83 1014.1
20260830042832 83 176 1.0 5.0 0.00 0.00 0.00 83 1014.1
20260830042731 83 182 1.0 5.0 0.00 0.00 0.00 83 1014.1
20260830042631 83 200 1.0 5.0 0.00 0.00 0.00 83 1014.1
20260830042532 83 202 2.0 5.0 0.00 0.00 0.00 83 1014.1
20260830042431 83 203 2.0 6.0 0.00 0.00 0.00 83 1014.1
20260830042330 83 176 1.0 6.0 0.00 0.00 0.00 83 1014.0
20260830042232 83 175 2.0 6.0 0.00 0.00 0.00 83 1014.0
20260830042132 83 179 3.0 6.0 0.00 0.00 0.00 83 1014.0
20260830042033 83 166 3.0 6.0 0.00 0.00 0.00 83 1014.0
20260830041932 83 195 3.0 6.0 0.00 0.00 0.00 83 1013.9
20260830041832 83 175 2.0 6.0 0.00 0.00 0.00 83 1013.9
20260830041731 83 154 2.0 6.0 0.00 0.00 0.00 83 1014.0
20260830041632 83 185 4.0 6.0 0.00 0.00 0.00 83 1013.9
20260830041533 83 186 4.0 6.0 0.00 0.00 0.00 83 1013.9
20260830041431 83 186 2.0 5.0 0.00 0.00 0.00 83 1014.0
20260830041331 83 178 2.0 4.0 0.00 0.00 0.00 83 1014.0
20260830041231 83 169 2.0 4.0 0.00 0.00 0.00 83 1014.0
20260830041132 83 209 2.0 4.0 0.00 0.00 0.00 83 1014.0
20260830041032 83 189 2.0 5.0 0.00 0.00 0.00 83 1014.0
20260830040931 83 171 1.0 7.0 0.00 0.00 0.00 83 1014.0
20260830040832 83 164 1.0 7.0 0.00 0.00 0.00 83 1014.0
20260830040732 83 172 2.0 7.0 0.00 0.00 0.00 83 1014.0
20260830040629 83 192 1.0 7.0 0.00 0.00 0.00 83 1013.9
20260830040514 84 182 1.0 7.0 0.00 0.00 0.00 83 1014.0
20260830040414 84 188 2.0 7.0 0.00 0.00 0.00 83 1013.9
20260830040315 84 172 2.0 7.0 0.00 0.00 0.00 83 1014.0
20260830040214 84 200 3.0 7.0 0.00 0.00 0.00 83 1013.9
20260830040111 84 180 3.0 7.0 0.00 0.00 0.00 83 1014.0
20260830040008 84 186 3.0 5.0 0.00 0.00 0.00 83 1014.0
20260830035909 84 138 2.0 5.0 0.00 0.00 0.00 83 1014.0
20260830035806 84 213 2.0 5.0 0.00 0.00 0.00 83 1014.0
20260830035706 84 189 1.0 5.0 0.00 0.00 0.00 83 1014.1
20260830035604 84 185 1.0 5.0 0.00 0.00 0.00 83 1014.1
20260830035504 84 182 1.0 6.0 0.00 0.00 0.00 83 1014.0
20260830035402 84 166 1.0 6.0 0.00 0.00 0.00 83 1014.1
20260830035302 84 162 2.0 6.0 0.00 0.00 0.00 83 1014.0
20260830035203 84 169 2.0 6.0 0.00 0.00 0.00 83 1014.0
20260830035102 84 149 1.0 6.0 0.00 0.00 0.00 83 1013.9
20260830035005 84 142 1.0 6.0 0.00 0.00 0.00 83 1013.9
20260830034904 84 157 2.0 6.0 0.00 0.00 0.00 83 1013.9
20260830034802 84 190 3.0 6.0 0.00 0.00 0.00 83 1013.9
20260830034702 84 162 4.0 6.0 0.00 0.00 0.00 83 1014.0
20260830034601 84 185 4.0 6.0 0.00 0.00 0.00 83 1013.9
20260830034504 84 188 4.0 6.0 0.00 0.00 0.00 83 1014.0
20260830034403 84 186 2.0 5.0 0.00 0.00 0.00 83 1014.0
20260830034304 84 182 2.0 5.0 0.00 0.00 0.00 83 1013.9
20260830034203 84 142 2.0 5.0 0.00 0.00 0.00 83 1014.0
20260830034103 84 162 3.0 5.0 0.00 0.00 0.00 83 1013.9
20260830034003 84 144 3.0 6.0 0.00 0.00 0.00 83 1014.0
20260830033902 84 151 3.0 6.0 0.00 0.00 0.00 83 1013.9
20260830033803 84 158 3.0 6.0 0.00 0.00 0.00 83 1013.9
20260830033702 84 118 2.0 9.0 0.00 0.00 0.00 82 1014.0
20260830033602 84 137 2.0 9.0 0.00 0.00 0.00 82 1013.9
20260830033504 84 99 2.0 9.0 0.00 0.00 0.00 82 1013.9
20260830033403 84 147 4.0 9.0 0.00 0.00 0.00 82 1013.9
20260830033303 84 147 4.0 9.0 0.00 0.00 0.00 82 1013.9
20260830033203 84 147 4.0 9.0 0.00 0.00 0.00 82 1014.0
20260830033103 84 147 4.0 9.0 0.00 0.00 0.00 82 1013.9
20260830033002 84 159 4.0 9.0 0.00 0.00 0.00 82 1013.9
20260830032902 84 94 3.0 9.0 0.00 0.00 0.00 82 1014.0
20260830032804 84 179 4.0 9.0 0.00 0.00 0.00 82 1014.0
20260830032704 84 145 3.0 6.0 0.00 0.00 0.00 82 1013.9
20260830032602 84 162 3.0 6.0 0.00 0.00 0.00 82 1013.9
20260830032503 84 168 3.0 6.0 0.00 0.00 0.00 82 1014.0
20260830032402 84 144 2.0 6.0 0.00 0.00 0.00 82 1013.9
20260830032305 84 142 3.0 6.0 0.00 0.00 0.00 82 1013.9
20260830032204 84 151 2.0 6.0 0.00 0.00 0.00 82 1013.9
20260830032103 84 164 2.0 6.0 0.00 0.00 0.00 81 1013.9
20260830032003 85 183 2.0 6.0 0.00 0.00 0.00 81 1013.9
20260830031902 85 142 2.0 6.0 0.00 0.00 0.00 81 1013.9
20260830031803 85 220 2.0 6.0 0.00 0.00 0.00 81 1013.9
20260830031702 85 148 2.0 6.0 0.00 0.00 0.00 81 1013.9
20260830031602 85 203 1.0 6.0 0.00 0.00 0.00 81 1013.9
20260830031503 85 149 2.0 6.0 0.00 0.00 0.00 81 1013.9
20260830031404 85 151 2.0 6.0 0.00 0.00 0.00 81 1013.9
20260830031303 85 144 2.0 7.0 0.00 0.00 0.00 81 1013.9
20260830031202 85 157 1.0 7.0 0.00 0.00 0.00 80 1013.8
20260830031103 85 157 2.0 7.0 0.00 0.00 0.00 80 1013.8
20260830031002 85 183 2.0 7.0 0.00 0.00 0.00 80 1013.7
20260830030904 85 92 2.0 7.0 0.00 0.00 0.00 80 1013.7
20260830030802 85 161 2.0 7.0 0.00 0.00 0.00 80 1013.7
20260830030702 85 166 2.0 7.0 0.00 0.00 0.00 80 1013.8
20260830030602 85 159 2.0 9.0 0.00 0.00 0.00 80 1013.8
20260830030503 85 172 4.0 9.0 0.00 0.00 0.00 80 1013.8
20260830030403 85 114 4.0 12.0 0.00 0.00 0.00 80 1013.7
20260830030302 85 165 4.0 12.0 0.00 0.00 0.00 80 1013.6
20260830030203 85 134 3.0 12.0 0.00 0.00 0.00 80 1013.6
20260830030004 85 142 4.0 12.0 0.00 0.00 0.00 79 1013.7
20260830025901 85 172 4.0 12.0 0.00 0.00 0.00 79 1013.6
20260830025802 85 165 4.0 12.0 0.00 0.00 0.00 79 1013.7
20260830025702 85 186 5.0 12.0 0.00 0.00 0.00 79 1013.7
20260830025602 85 159 5.0 12.0 0.00 0.00 0.00 79 1013.7
20260830025503 85 197 5.0 12.0 0.00 0.00 0.00 79 1013.6
20260830025404 85 123 5.0 9.0 0.00 0.00 0.00 79 1013.6
20260830025306 85 178 5.0 9.0 0.00 0.00 0.00 79 1013.7
20260830025201 85 138 4.0 9.0 0.00 0.00 0.00 79 1013.7
20260830025102 85 193 3.0 9.0 0.00 0.00 0.00 79 1013.6
20260830025003 85 195 3.0 9.0 0.00 0.00 0.00 79 1013.6
20260830024904 85 123 4.0 7.0 0.00 0.00 0.00 79 1013.6
20260830024803 85 104 4.0 7.0 0.00 0.00 0.00 79 1013.6
20260830024703 85 169 4.0 7.0 0.00 0.00 0.00 79 1013.6
20260830024603 85 202 4.0 7.0 0.00 0.00 0.00 78 1013.6
20260830024505 85 165 4.0 7.0 0.00 0.00 0.00 78 1013.6
20260830024404 85 155 3.0 7.0 0.00 0.00 0.00 78 1013.7
20260830024303 85 140 3.0 10.0 0.00 0.00 0.00 78 1013.6
20260830024203 85 124 2.0 10.0 0.00 0.00 0.00 78 1013.7
20260830024102 85 175 3.0 10.0 0.00 0.00 0.00 78 1013.6
20260830024004 85 157 4.0 10.0 0.00 0.00 0.00 78 1013.6
20260830023903 86 123 4.0 10.0 0.00 0.00 0.00 78 1013.7
20260830023802 86 135 4.0 10.0 0.00 0.00 0.00 78 1013.7
20260830023702 86 155 4.0 10.0 0.00 0.00 0.00 78 1013.6
20260830023603 86 186 4.0 10.0 0.00 0.00 0.00 78 1013.6
20260830023502 86 169 5.0 10.0 0.00 0.00 0.00 77 1013.6
20260830023403 86 148 4.0 10.0 0.00 0.00 0.00 77 1013.6
20260830023304 86 148 4.0 10.0 0.00 0.00 0.00 77 1013.6
20260830023204 86 124 5.0 10.0 0.00 0.00 0.00 77 1013.6
20260830023102 86 166 4.0 12.0 0.00 0.00 0.00 77 1013.6
20260830023004 86 145 4.0 12.0 0.00 0.00 0.00 77 1013.5
20260830022902 86 82 4.0 12.0 0.00 0.00 0.00 77 1013.5
20260830022803 86 186 5.0 12.0 0.00 0.00 0.00 77 1013.5
20260830022703 86 178 4.0 12.0 0.00 0.00 0.00 77 1013.5
20260830022602 86 135 3.0 12.0 0.00 0.00 0.00 77 1013.4
20260830022503 86 131 3.0 12.0 0.00 0.00 0.00 77 1013.5
20260830022402 86 92 4.0 12.0 0.00 0.00 0.00 76 1013.4
20260830022306 86 209 5.0 12.0 0.00 0.00 0.00 76 1013.4
20260830022203 86 173 6.0 12.0 0.00 0.00 0.00 76 1013.4
20260830022102 86 199 5.0 12.0 0.00 0.00 0.00 76 1013.3
20260830022003 86 144 4.0 10.0 0.00 0.00 0.00 76 1013.3
20260830021901 86 197 3.0 10.0 0.00 0.00 0.00 76 1013.3
20260830021801 86 171 4.0 10.0 0.00 0.00 0.00 76 1013.2
20260830021702 86 104 5.0 10.0 0.00 0.00 0.00 76 1013.2
20260830021603 86 188 4.0 10.0 0.00 0.00 0.00 76 1013.1
20260830021503 86 176 5.0 10.0 0.00 0.00 0.00 76 1013.2
20260830021403 86 179 5.0 10.0 0.00 0.00 0.00 76 1013.1
20260830021304 86 206 4.0 10.0 0.00 0.00 0.00 76 1013.1
20260830021203 86 166 4.0 10.0 0.00 0.00 0.00 76 1013.1
20260830021101 86 179 3.0 10.0 0.00 0.00 0.00 76 1013.0
20260830021002 86 155 3.0 10.0 0.00 0.00 0.00 76 1013.0
20260830020903 86 214 4.0 10.0 0.00 0.00 0.00 76 1013.0
20260830020802 86 168 5.0 10.0 0.00 0.00 0.00 76 1013.0
20260830020703 86 172 6.0 10.0 0.00 0.00 0.00 76 1013.0
20260830020603 86 133 5.0 10.0 0.00 0.00 0.00 76 1012.9
20260830020503 86 172 3.0 9.0 0.00 0.00 0.00 76 1013.0
20260830020403 87 161 2.0 9.0 0.00 0.00 0.00 76 1012.9
20260830020303 87 186 3.0 9.0 0.00 0.00 0.00 76 1012.9
20260830020203 87 137 3.0 9.0 0.00 0.00 0.00 76 1012.9
20260830020003 87 188 4.0 9.0 0.00 0.00 0.00 76 1012.8
20260830015904 87 182 4.0 9.0 0.00 0.00 0.00 75 1012.8
20260830015803 87 137 3.0 12.0 0.00 0.00 0.00 75 1012.8
20260830015702 87 147 3.0 12.0 0.00 0.00 0.00 75 1012.8
20260830015603 87 111 3.0 12.0 0.00 0.00 0.00 75 1012.8
20260830015505 87 124 3.0 12.0 0.00 0.00 0.00 75 1012.7
20260830015402 87 154 4.0 12.0 0.00 0.00 0.00 75 1012.7
20260830015305 87 175 5.0 12.0 0.00 0.00 0.00 75 1012.7
20260830015203 87 141 4.0 12.0 0.00 0.00 0.00 75 1012.8
20260830015103 87 204 4.0 12.0 0.00 0.00 0.00 75 1012.7
20260830015002 87 144 6.0 12.0 0.00 0.00 0.00 75 1012.8
20260830014903 87 145 6.0 12.0 0.00 0.00 0.00 74 1012.7
20260830014802 87 134 5.0 12.0 0.00 0.00 0.00 74 1012.7
20260830014701 87 159 4.0 12.0 0.00 0.00 0.00 74 1012.7
20260830014603 87 178 4.0 12.0 0.00 0.00 0.00 74 1012.6
20260830014504 87 158 5.0 13.0 0.00 0.00 0.00 74 1012.6
20260830014403 87 148 5.0 13.0 0.00 0.00 0.00 74 1012.7
20260830014302 87 94 6.0 13.0 0.00 0.00 0.00 74 1012.6
20260830014203 87 111 6.0 13.0 0.00 0.00 0.00 74 1012.6
20260830014103 87 130 4.0 13.0 0.00 0.00 0.00 74 1012.6
20260830014003 87 141 3.0 13.0 0.00 0.00 0.00 74 1012.6
20260830013902 88 86 4.0 13.0 0.00 0.00 0.00 74 1012.6
20260830013802 88 158 5.0 13.0 0.00 0.00 0.00 73 1012.6
20260830013701 88 147 5.0 13.0 0.00 0.00 0.00 73 1012.6
20260830013602 88 245 4.0 13.0 0.00 0.00 0.00 73 1012.6
20260830013504 88 121 4.0 11.0 0.00 0.00 0.00 73 1012.5
20260830013402 88 162 6.0 11.0 0.00 0.00 0.00 73 1012.5
20260830013302 88 188 5.0 11.0 0.00 0.00 0.00 73 1012.6
20260830013204 88 173 6.0 10.0 0.00 0.00 0.00 73 1012.6
20260830013102 88 151 4.0 10.0 0.00 0.00 0.00 73 1012.5
20260830013000 88 110 2.0 9.0 0.00 0.00 0.00 72 1012.5
20260830012859 88 164 3.0 9.0 0.00 0.00 0.00 72 1012.5
20260830012758 88 155 5.0 9.0 0.00 0.00 0.00 72 1012.5
20260830012654 88 93 5.0 12.0 0.00 0.00 0.00 72 1012.5
20260830012555 88 76 5.0 12.0 0.00 0.00 0.00 72 1012.5
20260830012454 88 161 4.0 12.0 0.00 0.00 0.00 71 1012.5
20260830012352 88 127 5.0 12.0 0.00 0.00 0.00 71 1012.4
20260830012251 89 165 4.0 12.0 0.00 0.00 0.00 71 1012.4
20260830012148 89 120 4.0 12.0 0.00 0.00 0.00 71 1012.5
20260830012048 89 165 3.0 12.0 0.00 0.00 0.00 71 1012.3
20260830011945 89 216 4.0 12.0 0.00 0.00 0.00 70 1012.3
20260830011845 89 161 6.0 12.0 0.00 0.00 0.00 70 1012.3
20260830011742 89 179 6.0 12.0 0.00 0.00 0.00 70 1012.3
20260830011641 89 157 5.0 11.0 0.00 0.00 0.00 70 1012.3
20260830011540 89 182 5.0 11.0 0.00 0.00 0.00 70 1012.3
20260830011440 89 171 7.0 11.0 0.00 0.00 0.00 70 1012.3
20260830011340 89 159 6.0 11.0 0.00 0.00 0.00 69 1012.2
20260830011241 89 71 4.0 11.0 0.00 0.00 0.00 69 1012.2
20260830011139 89 188 3.0 11.0 0.00 0.00 0.00 69 1012.3
20260830011040 89 94 5.0 11.0 0.00 0.00 0.00 69 1012.2
20260830010940 89 207 6.0 11.0 0.00 0.00 0.00 69 1012.2
20260830010839 89 142 6.0 11.0 0.00 0.00 0.00 69 1012.2
20260830010739 89 178 6.0 11.0 0.00 0.00 0.00 68 1012.2
20260830010639 89 159 6.0 11.0 0.00 0.00 0.00 68 1012.2
20260830010542 90 185 6.0 11.0 0.00 0.00 0.00 68 1012.2
20260830010439 89 178 6.0 11.0 0.00 0.00 0.00 68 1012.3
20260830010339 89 116 6.0 11.0 0.00 0.00 0.00 68 1012.2
20260830010241 90 161 6.0 11.0 0.00 0.00 0.00 68 1012.1
20260830010139 90 133 4.0 10.0 0.00 0.00 0.00 68 1012.2
20260830010040 90 176 4.0 10.0 0.00 0.00 0.00 68 1012.1
20260830005939 90 86 4.0 10.0 0.00 0.00 0.00 68 1012.1
20260830005840 90 148 5.0 10.0 0.00 0.00 0.00 68 1012.2
20260830005739 90 161 4.0 10.0 0.00 0.00 0.00 68 1012.1
20260830005639 90 162 3.0 10.0 0.00 0.00 0.00 68 1012.2
20260830005538 90 145 2.0 10.0 0.00 0.00 0.00 67 1012.2
20260830005435 90 148 4.0 10.0 0.00 0.00 0.00 67 1012.2
20260830005334 90 188 5.0 10.0 0.00 0.00 0.00 67 1012.2
20260830005232 90 110 3.0 9.0 0.00 0.00 0.00 67 1012.1
20260830005132 90 89 3.0 9.0 0.00 0.00 0.00 67 1012.2
20260830005032 90 202 5.0 9.0 0.00 0.00 0.00 66 1012.1
20260830004932 90 144 5.0 10.0 0.00 0.00 0.00 67 1012.2
20260830004830 90 162 4.0 11.0 0.00 0.00 0.00 66 1012.1
20260830004731 91 204 3.0 11.0 0.00 0.00 0.00 66 1012.2
20260830004632 91 131 4.0 11.0 0.00 0.00 0.00 66 1012.1
20260830004532 91 158 3.0 11.0 0.00 0.00 0.00 66 1012.2
20260830004431 91 154 2.0 11.0 0.00 0.00 0.00 66 1012.2
20260830004331 91 99 3.0 11.0 0.00 0.00 0.00 65 1012.2
20260830004231 91 173 5.0 11.0 0.00 0.00 0.00 65 1012.1
20260830004132 91 121 6.0 11.0 0.00 0.00 0.00 65 1012.2
20260830004032 91 125 5.0 11.0 0.00 0.00 0.00 64 1012.2
20260830003931 91 103 6.0 11.0 0.00 0.00 0.00 64 1012.3
20260830003831 91 111 5.0 11.0 0.00 0.00 0.00 64 1012.2
20260830003731 92 107 5.0 10.0 0.00 0.00 0.00 63 1012.1
20260830003632 92 121 5.0 10.0 0.00 0.00 0.00 63 1012.1
20260830003531 92 161 5.0 7.0 0.00 0.00 0.00 63 1012.1
20260830003431 92 96 5.0 7.0 0.00 0.00 0.00 62 1012.1
20260830003330 92 100 5.0 7.0 0.00 0.00 0.00 62 1012.2
20260830003232 92 158 5.0 7.0 0.00 0.00 0.00 61 1012.1
20260830003133 92 107 4.0 7.0 0.00 0.00 0.00 61 1012.1
20260830003030 92 137 3.0 7.0 0.00 0.00 0.00 61 1012.1
20260830002933 92 113 3.0 7.0 0.00 0.00 0.00 61 1012.1
20260830002831 92 97 3.0 9.0 0.00 0.00 0.00 60 1012.1
20260830002731 92 142 4.0 9.0 0.00 0.00 0.00 60 1012.1
20260830002631 92 114 5.0 9.0 0.00 0.00 0.00 60 1012.1
20260830002532 92 110 5.0 9.0 0.00 0.00 0.00 60 1012.1
20260830002432 92 166 5.0 9.0 0.00 0.00 0.00 59 1012.1
20260830002331 93 114 4.0 9.0 0.00 0.00 0.00 59 1012.1